[{"header": {"dx": 0.06612293990616946, "dy": 0.0552356325346848, "nx": 98, "ny": 59, "la1": 35.046912555036876, "la2": 31.78801023549047, "lo1": -121.43107172385933, "lo2": -114.95102361305473, "refTime": "2026040923", "parameterCategory": 1, "parameterNumber": 2}, "data": [14.75, 14.75, 14.66, 14.66, 14.66, 14.66, 14.66, 14.64, 14.64, 14.64, 13.86, 11.62, 12.52, 11.09, 10.2, 10.73, 10.73, 10.73, 10.73, 10.28, 9.39, 9.39, 8.89, 8.9, 8.94, 9.39, 9.39, 9.39, 8.9, 6.57, 2.49, 0.0, 0.0, 0.0, 1.32, 1.23, 2.66, 3.68, 4.75, 6.28, 6.52, 8.18, 9.97, 11.6, 13.15, 14.24, 16.54, 18.21, 18.11, 16.05, 12.96, 12.07, 12.07, 12.48, 12.93, 12.83, 13.28, 13.11, 13.11, 12.89, 12.89, 12.89, 12.46, 12.46, 12.53, 12.96, 13.39, 13.44, 13.44, 13.18, 12.71, 12.27, 11.96, 11.96, 11.95, 11.51, 11.51, 11.52, 12.93, 12.48, 10.28, 9.83, 9.39, 8.94, 8.05, 7.6, 8.05, 8.49, 8.49, 8.94, 10.28, 11.18, 11.18, 12.07, 11.72, 8.85, 5.69, 6.17, 14.3, 14.75, 14.75, 14.66, 14.66, 14.66, 15.11, 15.08, 14.64, 14.6, 13.41, 12.96, 11.62, 10.65, 11.46, 11.02, 10.2, 11.62, 10.28, 9.83, 10.28, 10.28, 9.26, 8.82, 8.0, 8.49, 8.94, 8.94, 8.9, 7.12, 3.45, 0.0, 0.0, 1.52, 1.23, 1.4, 1.58, 2.54, 4.37, 5.59, 6.95, 8.22, 10.12, 11.9, 14.18, 16.28, 18.48, 18.47, 16.92, 13.41, 11.62, 11.58, 11.49, 11.18, 11.37, 12.21, 12.21, 12.63, 12.33, 12.63, 12.63, 12.21, 12.21, 12.21, 12.46, 12.53, 12.96, 13.15, 13.15, 12.71, 12.71, 12.41, 11.95, 11.95, 11.95, 11.59, 11.59, 11.52, 12.93, 12.48, 10.28, 9.83, 9.39, 8.94, 8.05, 7.6, 8.05, 8.49, 8.49, 8.94, 10.28, 11.18, 11.18, 12.07, 11.72, 8.85, 5.69, 6.17, 14.3, 14.75, 14.75, 14.66, 14.66, 14.66, 15.11, 15.08, 15.08, 14.16, 12.52, 10.28, 11.51, 11.53, 10.47, 10.41, 10.91, 10.91, 11.11, 11.18, 9.83, 10.73, 11.18, 10.14, 8.85, 8.45, 8.94, 8.94, 8.9, 7.63, 4.22, 1.18, 1.4, 2.4, 1.63, 2.69, 1.58, 1.47, 2.58, 4.05, 6.16, 9.13, 12.11, 13.46, 16.37, 18.68, 19.73, 18.33, 13.36, 10.35, 10.6, 10.43, 10.55, 10.63, 10.48, 11.6, 11.6, 11.99, 11.99, 12.33, 12.33, 11.92, 12.21, 12.21, 12.46, 12.53, 12.71, 12.71, 12.71, 12.71, 12.68, 12.68, 12.39, 11.95, 11.51, 11.59, 11.62, 13.41, 13.86, 13.41, 10.28, 9.39, 8.94, 8.49, 7.6, 7.6, 8.01, 8.44, 8.87, 9.76, 12.39, 12.83, 12.52, 11.98, 9.82, 6.98, 5.63, 6.11, 14.3, 14.3, 14.75, 14.66, 14.66, 14.66, 15.11, 15.08, 14.64, 13.72, 11.91, 10.58, 11.91, 11.09, 10.84, 10.6, 11.03, 11.45, 11.56, 10.96, 11.11, 10.28, 11.18, 11.62, 10.68, 9.74, 8.45, 8.94, 8.9, 7.76, 6.01, 3.52, 2.83, 2.83, 4.0, 2.97, 3.11, 2.71, 3.19, 4.71, 8.53, 11.27, 13.59, 14.91, 16.32, 16.54, 14.84, 10.38, 9.03, 9.65, 10.09, 10.66, 10.66, 10.66, 10.66, 11.26, 11.6, 11.99, 11.99, 12.33, 11.92, 12.21, 12.04, 12.04, 12.24, 12.24, 12.71, 12.14, 11.95, 12.04, 13.05, 14.1, 14.1, 12.24, 11.08, 11.15, 11.18, 13.41, 15.65, 13.41, 9.39, 9.39, 8.45, 8.0, 8.0, 8.89, 8.87, 8.43, 8.87, 12.52, 14.3, 12.96, 11.95, 9.7, 6.11, 5.9, 6.11, 6.79, 14.3, 14.3, 14.75, 14.75, 14.66, 14.66, 15.08, 15.08, 14.64, 13.72, 11.91, 10.58, 11.46, 11.06, 10.41, 11.03, 10.62, 11.03, 11.03, 11.45, 12.39, 10.58, 10.73, 11.62, 10.73, 11.18, 9.83, 9.39, 9.39, 8.24, 6.87, 4.88, 5.77, 8.22, 8.94, 6.2, 3.53, 3.14, 4.3, 6.44, 8.6, 10.13, 10.75, 12.72, 12.83, 10.24, 9.17, 8.73, 9.0, 9.66, 10.66, 10.66, 11.02, 11.02, 11.2, 11.6, 11.6, 11.6, 12.04, 12.3, 12.04, 12.04, 11.8, 11.8, 12.39, 12.24, 11.68, 10.81, 11.16, 11.8, 12.99, 14.21, 15.16, 14.81, 12.48, 9.83, 10.28, 11.62, 14.3, 13.81, 8.82, 8.9, 8.0, 7.1, 7.54, 8.49, 8.94, 8.85, 11.18, 13.15, 12.33, 11.09, 8.73, 5.82, 5.63, 6.11, 6.79, 7.28, 14.3, 14.3, 14.3, 14.75, 14.64, 14.64, 15.08, 14.64, 14.31, 13.32, 11.91, 10.14, 11.02, 10.32, 10.84, 10.6, 11.03, 11.45, 11.03, 11.44, 11.87, 11.45, 13.23, 12.96, 12.07, 12.07, 11.62, 11.02, 10.52, 10.52, 9.39, 7.81, 6.95, 9.66, 11.99, 11.99, 9.17, 6.2, 2.87, 5.16, 5.09, 7.93, 12.14, 10.73, 9.5, 8.32, 8.97, 9.0, 9.66, 10.04, 10.04, 10.63, 10.63, 11.02, 11.6, 11.6, 11.92, 12.04, 12.3, 12.09, 11.84, 11.51, 11.51, 11.95, 12.2, 11.2, 9.3, 8.53, 9.59, 11.09, 12.6, 12.99, 14.6, 16.12, 15.43, 13.8, 8.94, 8.44, 8.44, 12.0, 7.42, 7.54, 7.15, 7.6, 7.89, 7.28, 6.64, 9.62, 10.12, 10.52, 9.5, 8.85, 5.63, 5.1, 6.11, 7.13, 7.28, 8.37, 14.3, 14.3, 14.3, 14.75, 14.64, 14.64, 14.31, 14.31, 13.88, 13.32, 11.45, 9.7, 10.58, 10.32, 11.45, 10.6, 11.45, 11.87, 11.44, 11.2, 12.18, 13.7, 14.47, 15.65, 15.2, 14.75, 14.99, 13.57, 11.6, 9.32, 9.6, 9.39, 9.54, 8.99, 11.21, 13.86, 14.19, 13.86, 0.0, 0.0, 3.47, 12.96, 6.0, 6.0, 8.57, 8.1, 8.85, 9.66, 9.66, 10.41, 10.55, 10.23, 11.02, 11.2, 11.2, 11.92, 11.87, 12.09, 12.27, 12.41, 11.95, 11.59, 11.59, 11.91, 9.53, 7.93, 7.51, 8.53, 9.69, 11.58, 12.58, 12.93, 13.39, 14.81, 16.31, 15.39, 13.77, 8.24, 8.67, 9.74, 7.6, 8.49, 7.81, 4.4, 3.39, 4.58, 6.94, 8.87, 10.12, 9.17, 8.85, 7.95, 5.1, 5.53, 6.79, 7.28, 8.54, 9.32, 13.86, 14.3, 14.3, 14.3, 14.64, 14.64, 14.31, 14.31, 13.88, 12.89, 10.0, 9.13, 9.55, 10.27, 11.2, 9.77, 10.8, 12.04, 12.18, 12.45, 12.45, 12.6, 12.94, 15.43, 15.14, 15.2, 15.65, 15.27, 13.19, 12.33, 11.61, 11.95, 12.52, 12.52, 10.6, 10.73, 11.38, 9.77, 11.62, 5.2, 9.17, 7.69, 6.34, 8.43, 9.35, 9.31, 8.22, 9.66, 10.04, 11.12, 10.04, 10.63, 11.2, 11.2, 11.5, 11.37, 11.61, 11.8, 11.51, 11.51, 11.59, 11.18, 11.13, 8.82, 5.2, 6.43, 8.3, 9.0, 9.81, 11.2, 12.1, 12.89, 13.55, 14.16, 15.15, 15.15, 12.9, 12.0, 12.42, 14.16, 14.53, 8.53, 1.93, -0.0, 1.98, 5.8, 7.82, 10.47, 9.17, 8.53, 6.5, 4.16, 4.87, 6.01, 7.37, 7.37, 8.54, 7.56, 13.86, 14.3, 14.3, 14.19, 14.64, 14.64, 14.31, 14.31, 13.39, 11.92, 10.4, 8.22, 10.37, 10.79, 10.19, 9.5, 10.37, 11.16, 11.99, 12.25, 12.33, 12.33, 12.66, 13.7, 12.75, 11.09, 9.83, 13.86, 15.49, 14.16, 13.72, 15.2, 14.42, 10.82, 8.85, 8.69, 9.7, 10.27, 9.2, 9.55, 10.12, 8.57, 7.82, 7.28, 7.56, 7.9, 10.01, 10.79, 10.66, 10.66, 11.5, 10.04, 10.63, 10.63, 10.85, 11.11, 11.33, 11.33, 11.49, 11.49, 11.14, 10.73, 8.93, 3.39, 4.81, 7.25, 9.17, 9.0, 9.04, 10.0, 12.04, 13.18, 14.28, 14.75, 14.3, 13.41, 11.62, 11.62, 13.86, 15.93, 16.05, 7.93, -0.0, -0.0, 3.25, 8.22, 10.8, 10.4, 6.44, 3.65, 2.66, 3.22, 4.19, 6.7, 7.37, 7.37, 7.56, 6.64, 13.86, 13.86, 14.3, 14.19, 14.64, 14.31, 14.4, 14.4, 13.39, 12.14, 10.87, 9.84, 10.04, 11.5, 12.39, 11.37, 10.86, 11.2, 12.27, 11.16, 11.6, 11.6, 12.39, 12.79, 13.75, 11.51, 9.39, 10.73, 14.75, 14.19, 14.75, 16.37, 13.99, 8.87, 7.73, 9.09, 10.05, 8.72, 9.46, 10.37, 9.59, 9.17, 8.22, 7.27, 7.68, 9.16, 10.04, 10.63, 11.26, 11.26, 10.66, 10.04, 9.67, 9.65, 10.4, 10.73, 10.58, 10.58, 10.92, 11.46, 11.13, 9.45, 3.77, 4.0, 6.2, 8.05, 8.76, 8.9, 9.3, 10.4, 12.24, 13.32, 14.3, 14.73, 14.06, 12.46, 11.21, 11.4, 12.0, 14.75, 15.59, 11.7, 4.24, -0.0, 5.69, 9.39, 9.75, 7.27, -0.0, -0.0, 2.12, 3.72, 4.74, 6.08, 7.07, 7.81, 7.9, 5.72, 13.86, 13.86, 14.3, 14.64, 14.64, 14.31, 14.4, 14.4, 13.57, 12.72, 11.6, 11.53, 11.88, 12.39, 13.28, 13.28, 14.53, 14.84, 15.34, 16.92, 17.15, 17.1, 16.66, 14.66, 14.75, 12.96, 10.28, 10.28, 12.83, 13.75, 12.86, 12.51, 10.04, 8.49, 9.48, 11.61, 11.35, 10.4, 9.76, 10.98, 11.25, 10.63, 9.0, 8.49, 8.73, 8.82, 9.42, 10.0, 10.0, 9.3, 9.0, 9.34, 9.0, 8.73, 8.38, 7.9, 8.22, 9.02, 10.8, 11.4, 10.46, 4.4, 4.0, 5.62, 6.6, 7.36, 8.05, 8.3, 8.93, 10.8, 12.04, 12.77, 14.3, 14.11, 12.98, 12.2, 10.94, 10.55, 12.04, 13.41, 9.12, 9.66, 10.75, 9.17, 8.0, 6.4, 7.07, 3.8, -0.0, -3.8, -0.0, -0.0, 2.12, 4.74, 6.44, 8.03, 6.95, 5.44, 13.86, 13.86, 14.19, 14.64, 14.64, 14.4, 14.4, 13.99, 13.57, 12.25, 12.25, 12.11, 12.65, 12.79, 12.45, 12.14, 12.5, 14.75, 15.99, 16.89, 16.45, 16.01, 15.56, 16.04, 13.34, 12.9, 12.45, 7.97, 11.02, 10.2, 10.65, 11.28, 10.58, 8.95, 10.52, 10.24, 10.02, 10.43, 10.01, 11.03, 11.28, 11.28, 10.04, 9.48, 8.93, 8.21, 9.32, 9.32, 8.73, 7.59, 7.27, 7.48, 7.48, 6.57, 5.76, 5.63, 6.7, 8.53, 10.73, 9.63, 4.98, 3.34, 4.91, 5.62, 6.28, 7.11, 7.45, 7.93, 8.3, 9.34, 10.09, 11.72, 12.94, 12.63, 11.12, 8.83, 7.78, 8.01, 10.41, 7.44, 5.15, 7.44, 8.01, 10.43, 7.59, 6.64, 6.32, 5.21, -0.0, -4.0, -5.37, -5.37, -0.0, 3.0, 6.01, 7.27, 6.14, 5.37, 13.86, 13.86, 14.19, 14.64, 14.64, 14.4, 14.4, 13.57, 13.57, 13.15, 12.87, 12.79, 13.43, 13.59, 14.38, 14.79, 14.23, 13.41, 12.91, 13.36, 13.36, 13.3, 13.3, 13.36, 13.36, 13.36, 13.3, 13.3, 11.95, 9.82, 10.73, 11.51, 11.36, 10.89, 10.25, 9.68, 9.75, 10.0, 10.04, 10.43, 11.2, 11.2, 10.63, 9.36, 8.8, 8.48, 8.8, 7.9, 6.95, 6.3, 6.32, 6.32, 5.76, 4.07, 4.08, 4.9, 6.08, 9.48, 10.2, 6.11, 3.82, 4.0, 4.87, 4.98, 5.55, 5.73, 6.9, 7.23, 7.25, 8.18, 9.8, 9.4, 9.75, 0.0, 0.0, 0.0, 0.0, 0.0, -0.0, 1.98, 5.32, 6.76, 8.85, 10.18, 8.85, 9.62, 8.58, 6.95, 3.11, -6.01, -8.24, -6.94, -5.37, -0.0, 3.8, 5.46, 5.69, 5.72, 13.86, 13.86, 13.75, 14.19, 14.31, 13.96, 13.96, 13.57, 13.57, 13.7, 13.28, 13.28, 13.43, 14.03, 15.16, 15.36, 15.87, 15.18, 14.75, 14.29, 14.29, 14.25, 14.7, 15.53, 15.53, 15.53, 14.19, 14.11, 13.67, 12.46, 11.18, 11.62, 12.07, 10.7, 10.16, 9.49, 8.82, 9.36, 9.36, 9.9, 10.85, 10.68, 10.6, 10.46, 9.46, 9.46, 7.35, 7.56, 7.59, 6.7, 6.95, 7.59, 6.9, 4.38, 5.6, 5.64, 5.7, 9.66, 11.99, 7.35, 3.55, 4.58, 4.98, 5.8, 5.06, 5.72, 5.99, 5.99, 6.67, 8.01, 9.8, 7.95, -10.6, -9.76, -9.04, -9.58, -9.6, -0.0, 3.11, 4.4, 5.9, 7.27, 10.41, 12.79, 10.41, 11.64, 11.12, 8.93, 4.0, -6.8, -9.39, -7.6, -7.15, -7.15, 8.94, 9.39, 7.2, 6.8, 13.86, 13.86, 13.75, 14.19, 13.88, 13.96, 13.96, 13.57, 13.7, 13.7, 13.28, 13.86, 13.86, 14.03, 15.02, 15.58, 16.05, 16.31, 16.07, 15.65, 15.2, 15.18, 15.58, 16.03, 15.96, 16.31, 15.87, 15.43, 15.01, 14.64, 13.84, 12.5, 12.01, 10.73, 10.22, 9.54, 9.97, 8.72, 10.6, 9.92, 10.45, 11.57, 10.66, 10.65, 9.11, 8.6, 8.0, 5.31, 5.59, 6.95, 8.23, 8.23, 5.9, 4.37, 4.37, 5.03, 7.28, 9.33, 11.72, 10.41, 5.0, 5.2, 5.92, 5.92, 6.5, 6.24, 6.5, 6.5, 7.59, 8.82, 9.4, 9.7, -11.03, -10.47, -10.28, -5.46, 1.69, 4.6, 5.29, 6.83, 7.35, 8.43, 8.55, 10.18, 10.12, 11.87, 12.45, 7.9, 4.2, -6.01, -9.83, -8.49, -6.94, -6.8, 0.0, 8.49, 8.05, 8.05, 13.86, 13.75, 13.75, 14.19, 13.96, 13.96, 13.96, 13.57, 13.7, 13.7, 14.23, 13.86, 13.86, 14.42, 14.95, 15.47, 15.98, 16.73, 16.88, 16.52, 16.09, 16.09, 16.08, 16.48, 16.4, 16.31, 16.33, 15.89, 15.45, 15.09, 15.09, 15.2, 13.78, 11.57, 10.28, 8.9, 9.49, 9.24, 10.91, 10.66, 10.25, 10.73, 10.73, 9.76, 9.32, 8.06, 6.01, 4.14, 4.14, 6.01, 6.63, 6.01, 6.01, 6.01, 6.28, 6.9, 8.06, 9.54, 10.62, 9.3, 6.42, 6.98, 7.27, 6.95, 6.64, 7.21, 6.01, 7.56, 7.9, 9.32, 9.24, 9.83, 0.0, -11.4, -2.19, 3.53, 6.48, 7.73, 8.85, 9.34, 9.67, 10.0, 9.75, 9.24, 8.49, 7.97, 10.08, 8.8, -0.0, -3.6, -9.39, -6.4, -6.8, -8.05, -8.94, 8.94, 8.49, 8.49, 13.86, 13.77, 14.22, 13.77, 13.53, 13.96, 13.96, 13.99, 13.7, 13.7, 14.23, 14.23, 14.42, 14.42, 14.95, 15.25, 15.3, 16.26, 16.87, 16.96, 16.54, 16.09, 16.09, 16.03, 15.96, 15.87, 15.98, 15.98, 16.04, 16.49, 16.97, 16.99, 16.08, 14.25, 8.9, 8.94, 9.34, 10.65, 10.2, 10.28, 10.28, 8.94, 9.83, 8.45, 9.03, 7.67, 4.6, 4.37, 6.01, 6.98, 6.98, 7.33, 7.81, 7.81, 7.81, 8.15, 9.04, 9.63, 9.48, 9.3, 7.9, 7.27, 7.56, 7.81, 8.63, 7.35, 8.0, 7.6, 8.4, 9.89, 10.73, 11.0, 12.58, 9.08, 6.67, 7.9, 9.7, 11.2, 11.25, 11.28, 11.6, 11.09, 10.18, 9.11, 8.49, 7.47, 8.06, -3.8, -2.69, -6.01, -9.39, -8.05, -5.37, -0.0, -0.0, -0.0, 2.97, 2.97, 13.86, 13.77, 14.22, 14.22, 13.53, 13.53, 13.96, 13.7, 14.13, 14.13, 14.23, 14.66, 14.75, 14.75, 14.75, 14.81, 15.3, 15.78, 16.41, 16.51, 16.09, 16.07, 15.65, 15.18, 15.49, 16.03, 16.52, 16.54, 16.54, 17.43, 17.42, 17.88, 17.86, 15.99, 12.37, 8.45, 8.9, 10.2, 10.73, 10.28, 9.83, 9.39, 8.49, 8.41, 8.0, 6.64, 6.32, 6.32, 7.33, 7.81, 7.81, 8.18, 8.54, 8.54, 8.54, 8.54, 8.54, 8.37, 8.15, 8.49, 8.49, 8.37, 8.54, 8.63, 9.03, 8.29, 7.85, 8.38, 9.83, 11.18, 12.52, 12.07, 12.74, 13.35, 13.51, 12.87, 12.89, 13.49, 13.43, 12.79, 12.15, 11.87, 10.68, 9.34, 8.72, 0.0, -8.48, -8.24, -6.01, -4.6, -2.39, -2.06, -1.25, -0.0, -0.0, 3.11, 2.97, 2.97, 13.86, 13.77, 13.77, 14.22, 13.53, 13.53, 13.96, 13.7, 14.13, 14.13, 14.23, 14.66, 15.18, 15.18, 14.75, 16.27, 14.37, 15.25, 15.61, 15.2, 15.62, 15.91, 15.43, 16.5, 15.17, 16.54, 13.83, 16.86, 17.31, 16.0, 17.41, 17.88, 17.88, 17.43, 15.58, 12.04, 9.21, 9.06, 9.7, 11.11, 10.28, 10.24, 10.2, 9.04, 8.0, 7.56, 7.56, 7.81, 7.81, 8.4, 8.18, 8.54, 8.54, 8.54, 8.54, 8.37, 8.0, 8.15, 8.49, 9.48, 9.6, 9.2, 9.21, 8.14, 8.33, 8.45, 8.45, 8.94, 9.8, 12.07, 13.86, 15.43, 18.26, 18.32, 17.39, 15.52, 15.08, 14.64, 14.4, 13.92, 12.53, 11.36, 9.97, 9.68, 9.83, 9.26, 10.28, -3.53, -9.2, -7.59, -3.65, -1.54, -2.83, -1.26, -0.0, 1.62, 3.25, 3.25, 13.86, 13.86, 13.77, 13.77, 13.53, 13.53, 13.96, 13.7, 14.13, 14.13, 14.23, 14.66, 15.18, 15.18, 15.18, 14.42, 13.99, 14.31, 15.34, 14.95, 16.61, 15.36, 14.94, 16.09, 15.58, 15.98, 16.22, 15.97, 16.95, 16.99, 17.4, 17.4, 17.31, 17.3, 16.94, 15.2, 12.86, 11.35, 10.14, 8.05, 8.92, 9.23, 9.11, 8.72, 7.61, 9.1, 8.54, 9.04, 8.63, 8.63, 8.63, 8.63, 8.63, 8.15, 7.44, 7.41, 8.15, 7.68, 8.42, 9.6, 9.63, 9.54, 9.54, 9.32, 8.45, 8.45, 8.94, 9.39, 10.28, 11.62, 13.41, 16.0, 18.16, 18.62, 18.26, 16.99, 16.09, 15.62, 14.3, 13.41, 12.94, 12.04, 10.6, 9.68, 9.35, 8.46, 8.14, 7.37, -8.73, -7.33, -6.95, -5.98, -6.97, -4.4, -1.84, -0.0, 2.02, 2.02, 13.86, 13.86, 13.77, 13.77, 13.53, 13.53, 13.59, 13.7, 14.13, 14.56, 14.23, 14.66, 15.18, 15.18, 15.18, 14.95, 13.99, 13.99, 11.97, 14.03, 16.24, 15.81, 15.54, 14.86, 15.77, 16.54, 15.99, 16.99, 17.41, 17.77, 17.66, 17.22, 17.22, 17.06, 16.76, 16.41, 14.75, 12.96, 11.62, 10.28, 8.92, 9.23, 9.54, 9.21, 8.15, 9.6, 9.04, 9.21, 9.11, 9.03, 8.6, 8.6, 8.22, 7.81, 7.56, 6.73, 7.68, 7.64, 9.1, 9.21, 9.54, 9.54, 9.76, 9.76, 8.9, 8.94, 9.39, 9.83, 10.28, 11.62, 12.96, 14.73, 16.91, 18.31, 17.86, 16.82, 14.77, 14.58, 13.72, 13.01, 12.49, 11.62, 10.7, 9.81, 9.35, 8.9, 8.56, 7.89, 6.45, -3.15, -6.32, -8.85, -10.41, -8.18, -5.21, -1.84, -0.0, -0.0, 13.86, 13.86, 13.77, 13.77, 13.59, 13.59, 13.59, 13.7, 14.13, 14.56, 14.66, 14.66, 14.75, 15.18, 15.18, 15.25, 14.53, 14.1, 13.89, 15.49, 16.3, 16.41, 16.05, 16.05, 16.84, 17.85, 17.43, 16.54, 16.52, 16.91, 17.36, 17.26, 17.26, 17.26, 16.82, 16.8, 15.56, 13.84, 12.52, 11.18, 10.26, 9.32, 9.23, 9.11, 8.22, 6.95, 9.63, 9.54, 9.32, 8.85, 8.41, 8.17, 7.6, 7.44, 6.32, 6.3, 6.53, 7.59, 9.1, 9.04, 8.56, 9.24, 9.35, 9.39, 9.39, 9.39, 9.39, 9.83, 9.83, 11.11, 11.35, 13.57, 15.84, 17.26, 11.84, 12.87, 14.18, 13.65, 12.51, 11.6, 11.79, 10.62, 10.28, 9.39, 9.35, 8.9, 8.48, 8.4, 7.15, 4.2, -0.0, -2.28, -3.68, -2.83, -2.06, -0.0, -0.0, -0.0, 13.86, 13.86, 13.86, 13.79, 13.79, 13.59, 14.03, 14.03, 14.13, 14.56, 14.66, 14.66, 15.18, 15.18, 15.18, 15.25, 14.53, 14.1, 14.31, 15.69, 16.54, 15.98, 15.18, 15.2, 16.54, 17.43, 17.88, 17.43, 16.99, 16.07, 16.52, 16.47, 16.47, 16.47, 16.47, 16.46, 16.01, 14.67, 12.94, 11.6, 10.71, 10.26, 9.76, 8.77, 7.51, 6.56, 9.21, 9.32, 8.94, 8.41, 7.94, 8.06, 7.6, 6.63, 6.32, 5.59, 5.63, 6.83, 8.15, 7.82, 8.56, 8.8, 9.35, 8.94, 8.94, 9.39, 9.39, 9.39, 8.94, 8.72, 9.48, 10.94, 16.96, 15.02, 9.76, 9.76, 13.57, 13.39, 11.63, 11.33, 10.41, 9.66, 9.24, 9.39, 9.34, 8.91, 8.4, 7.96, 7.27, 6.97, 5.6, 5.54, 5.7, 4.14, 3.8, 1.84, 1.75, 1.75, 13.86, 13.86, 13.86, 13.86, 13.79, 13.59, 13.59, 14.03, 14.13, 14.56, 14.66, 15.09, 15.18, 15.18, 15.18, 15.25, 14.95, 14.18, 15.04, 15.55, 16.05, 16.73, 15.99, 14.73, 15.18, 16.54, 17.43, 17.43, 17.43, 16.99, 16.07, 16.07, 16.07, 16.07, 16.02, 16.01, 16.01, 15.12, 13.39, 11.6, 10.26, 9.82, 10.2, 10.05, 8.55, 7.14, 9.76, 9.32, 8.85, 8.6, 8.22, 7.6, 7.6, 6.63, 6.01, 6.01, 5.15, 6.32, 7.9, 8.93, 7.76, 8.33, 8.33, 8.45, 8.9, 9.35, 9.35, 9.76, 7.58, 7.35, 8.42, 14.71, 17.26, 16.96, 14.95, 11.56, 9.54, 12.52, 13.57, 11.44, 10.23, 9.58, 9.24, 8.49, 8.48, 8.17, 7.96, 7.13, 6.11, 6.18, 5.63, 5.59, 6.01, 5.37, 4.56, 2.99, 2.99, 2.99, 13.86, 13.86, 13.86, 13.86, 13.79, 13.79, 13.59, 14.03, 14.47, 14.66, 14.66, 14.66, 15.18, 15.18, 15.18, 15.25, 15.25, 14.61, 14.61, 15.55, 15.55, 16.7, 16.73, 16.43, 15.55, 15.62, 16.99, 17.43, 17.43, 16.99, 16.99, 16.54, 15.63, 15.63, 16.07, 16.07, 16.07, 15.63, 14.29, 12.05, 9.82, 9.32, 9.75, 10.05, 9.4, 9.15, 7.95, 8.42, 8.77, 9.07, 8.42, 9.63, 7.81, 7.2, 7.28, 6.79, 6.01, 5.93, 7.67, 7.81, 9.04, 8.06, 8.56, 8.99, 9.24, 9.24, 9.06, 7.81, 7.27, 9.03, 11.05, 12.96, 16.5, 16.22, 16.76, 16.27, 14.56, 12.74, 11.18, 12.0, 12.25, 11.87, 11.18, 9.63, 7.6, 6.82, 6.91, 6.32, 5.89, 5.94, 6.64, 6.01, 6.39, 6.01, 5.21, 4.37, 3.8, 3.8, 13.86, 13.86, 13.86, 13.86, 13.79, 13.79, 13.79, 14.03, 14.47, 14.23, 14.66, 14.66, 15.18, 15.18, 15.18, 15.25, 15.25, 15.25, 15.3, 15.3, 15.34, 15.78, 16.7, 16.7, 16.43, 15.99, 16.07, 16.97, 17.43, 17.43, 16.99, 16.99, 16.54, 16.54, 16.09, 16.09, 16.09, 16.07, 15.62, 13.39, 11.16, 9.76, 9.75, 9.62, 9.89, 10.05, 9.62, 8.42, 8.77, 9.21, 9.21, 8.3, 9.76, 8.17, 7.6, 7.28, 6.9, 7.2, 7.47, 7.67, 9.04, 9.45, 8.56, 9.21, 9.24, 8.56, 8.55, 7.13, 8.03, 9.36, 10.6, 12.96, 12.96, 15.12, 16.22, 16.27, 15.69, 14.23, 12.07, 9.7, 12.66, 14.16, 10.47, 7.59, 5.84, 6.55, 6.45, 5.53, 6.32, 6.01, 7.02, 6.68, 7.06, 6.01, 5.49, 5.21, 5.13, 5.13, 13.86, 13.86, 13.86, 13.86, 13.79, 13.79, 13.79, 13.59, 14.07, 14.23, 14.66, 14.66, 15.18, 14.75, 15.18, 15.25, 15.25, 15.25, 15.3, 15.3, 15.34, 15.34, 15.82, 16.26, 16.41, 16.43, 15.99, 16.52, 16.96, 16.99, 16.99, 16.99, 16.99, 16.99, 16.54, 16.54, 16.54, 16.54, 16.54, 15.62, 13.83, 11.98, 10.52, 9.62, 9.89, 10.05, 10.08, 9.31, 8.86, 8.86, 8.86, 8.92, 8.03, 7.58, 7.85, 7.12, 7.63, 7.06, 6.4, 6.6, 9.03, 8.99, 10.41, 8.77, 9.54, 7.96, 7.13, 7.68, 8.43, 9.97, 11.05, 11.62, 12.52, 13.41, 13.76, 15.01, 16.46, 15.65, 11.05, 7.76, 10.41, -0.0, -0.0, 3.39, 5.15, 5.06, 5.24, 6.01, 6.01, 6.73, 6.68, 7.31, 7.02, 6.64, 6.24, 5.86, 5.86, 5.86, 13.86, 13.86, 13.86, 13.86, 13.86, 13.79, 13.79, 13.8, 14.07, 14.07, 14.23, 14.66, 14.75, 14.75, 14.75, 14.81, 15.25, 15.25, 15.3, 15.3, 15.34, 15.34, 15.34, 15.38, 15.82, 15.97, 15.98, 15.98, 16.51, 16.52, 16.52, 16.52, 16.97, 16.97, 16.99, 16.54, 16.54, 16.99, 16.99, 16.09, 14.73, 12.94, 10.93, 9.46, 10.08, 9.64, 10.2, 9.82, 8.92, 8.94, 8.94, 8.49, 8.49, 7.6, 7.15, 7.6, 7.5, 7.45, 6.4, 6.99, 7.81, 8.8, 9.8, 9.24, 8.21, 7.9, 7.59, 8.42, 9.24, 10.14, 11.15, 12.07, 12.49, 12.49, 12.94, 14.22, 15.12, 14.28, 9.49, 5.93, -8.49, -10.18, -6.8, -0.0, 3.7, 5.46, 4.56, 6.01, 6.01, 6.73, 7.06, 7.35, 7.68, 7.31, 7.31, 7.31, 6.95, 6.95, 13.86, 13.86, 13.86, 13.86, 13.86, 13.8, 13.8, 14.25, 14.07, 14.07, 14.23, 14.66, 15.18, 15.18, 15.18, 14.75, 14.81, 14.81, 14.86, 14.86, 15.3, 15.34, 15.34, 15.34, 15.38, 15.53, 15.53, 15.97, 16.43, 16.51, 16.52, 16.52, 16.52, 16.52, 16.52, 16.52, 16.52, 16.99, 16.99, 16.54, 15.65, 13.38, 11.51, 9.64, 8.63, 9.07, 10.71, 11.6, 11.51, 9.39, 8.92, 8.92, 8.47, 8.05, 6.68, 6.68, 7.6, 7.45, 6.57, 6.99, 7.54, 8.94, 9.39, 8.91, 7.74, 6.83, 7.59, 8.82, 9.49, 10.25, 11.18, 12.49, 12.42, 12.74, 13.72, 14.42, 14.64, 13.76, 11.15, 8.67, 6.71, -9.66, -8.18, -1.72, 2.58, 2.99, 3.79, 5.24, 6.32, 6.73, 7.41, 8.06, 8.32, 7.96, 8.32, 7.95, 7.33, 7.33, 13.86, 13.86, 13.86, 13.86, 13.86, 13.8, 13.8, 14.25, 14.07, 14.07, 14.07, 14.66, 14.75, 15.18, 15.61, 15.18, 14.81, 14.81, 14.81, 14.86, 15.3, 15.34, 15.34, 15.34, 15.34, 15.34, 15.08, 15.53, 15.97, 15.98, 15.99, 16.0, 16.0, 16.01, 16.52, 16.52, 16.51, 16.54, 16.99, 16.99, 16.09, 14.28, 12.48, 9.79, 7.89, 9.79, 12.07, 13.28, 13.15, 12.22, 10.96, 8.8, 8.41, 7.52, 6.68, 6.58, 7.11, 7.15, 7.52, 7.08, 7.15, 8.49, 8.45, 7.96, 6.64, 7.06, 7.4, 8.73, 8.72, 9.83, 11.14, 12.04, 12.94, 13.65, 14.21, 14.84, 14.42, 14.09, 13.41, 12.96, 10.28, 10.28, 11.6, 10.12, 7.54, 4.94, 4.5, 5.3, 6.39, 7.32, 7.92, 9.03, 9.2, 9.05, 8.88, 8.49, 8.24, 8.24, 13.41, 13.41, 13.86, 13.86, 13.86, 13.8, 13.8, 14.25, 14.07, 14.51, 14.51, 13.8, 14.66, 14.75, 15.18, 15.18, 15.18, 15.25, 15.25, 15.3, 15.3, 15.3, 15.3, 15.34, 15.34, 15.34, 15.07, 14.62, 15.08, 15.54, 15.87, 15.45, 15.45, 15.56, 16.0, 16.0, 16.51, 16.51, 16.54, 16.99, 16.54, 15.2, 12.96, 10.73, 8.94, 10.08, 12.83, 14.27, 14.3, 13.41, 11.62, 9.39, 6.67, 6.6, 5.78, 5.33, 7.1, 7.6, 7.6, 7.15, 7.15, 8.49, 8.14, 7.15, 7.58, 7.6, 7.37, 8.8, 9.89, 10.28, 9.83, 10.73, 12.52, 14.3, 15.01, 14.84, 14.33, 13.49, 13.76, 14.75, 14.75, 13.86, 11.11, 13.21, 12.72, 10.4, 9.89, 8.12, 6.7, 8.24, 8.8, 9.18, 9.6, 9.83, 9.6, 9.08, 8.14, 8.14, 13.41, 13.41, 13.41, 13.86, 13.86, 13.86, 13.8, 14.25, 14.07, 14.51, 14.51, 14.51, 14.23, 15.18, 15.18, 15.18, 15.18, 15.68, 15.68, 15.68, 15.74, 15.74, 15.3, 15.3, 15.34, 15.34, 14.9, 14.16, 15.87, 14.5, 15.23, 15.67, 15.87, 15.43, 15.55, 15.99, 15.98, 16.51, 16.51, 16.54, 16.54, 15.65, 13.86, 11.18, 10.25, 10.93, 12.74, 14.75, 13.82, 12.37, 10.25, 8.02, 7.15, 6.26, 5.81, 4.47, 5.36, 7.08, 7.52, 7.1, 6.71, 7.55, 7.76, 7.89, 8.48, 8.29, 7.98, 9.39, 10.28, 10.73, 9.79, 10.25, 12.45, 15.15, 16.54, 16.8, 13.72, 12.09, 12.74, 13.78, 14.75, 14.29, 13.78, 12.39, 12.73, 13.01, 13.15, 12.98, 10.17, 8.67, 9.4, 10.02, 10.05, 10.05, 9.4, 8.91, 7.98, 7.98, 13.41, 13.41, 13.41, 13.86, 13.86, 13.86, 13.8, 14.25, 14.25, 14.51, 14.55, 14.51, 14.51, 14.51, 15.18, 15.18, 15.18, 15.18, 15.25, 15.68, 15.68, 15.74, 15.74, 15.3, 14.9, 14.9, 14.9, 13.99, 13.59, 15.25, 14.5, 15.38, 15.82, 15.97, 15.98, 15.98, 16.06, 16.51, 16.51, 16.54, 16.54, 16.09, 14.3, 12.07, 10.7, 11.51, 12.85, 13.83, 13.86, 11.62, 9.39, 8.94, 8.94, 8.05, 7.15, 6.26, 5.81, 5.36, 6.2, 6.2, 5.81, 7.37, 8.6, 7.81, 8.29, 8.0, 8.05, 8.49, 9.83, 10.73, 10.25, 10.6, 11.59, 14.3, 18.78, 19.67, 14.73, 11.96, 11.99, 12.94, 13.86, 14.29, 13.78, 13.69, 13.17, 13.92, 14.35, 13.88, 11.84, 10.6, 10.14, 9.81, 10.26, 10.26, 9.36, 8.8, 7.71, 7.71, 13.41, 13.41, 13.41, 13.41, 13.86, 13.86, 13.8, 14.25, 14.25, 14.55, 14.55, 14.95, 14.51, 14.51, 14.99, 15.18, 15.18, 15.18, 15.25, 15.68, 15.68, 16.17, 15.74, 15.74, 14.86, 14.9, 14.9, 14.47, 14.25, 14.31, 14.5, 15.08, 15.53, 15.53, 16.06, 16.06, 16.06, 16.06, 16.5, 16.54, 16.54, 16.54, 15.2, 12.96, 11.62, 11.6, 12.41, 13.74, 13.75, 12.05, 9.82, 9.37, 9.37, 8.92, 8.03, 7.13, 6.68, 5.79, 4.92, 4.92, 7.6, 7.89, 7.89, 8.38, 7.37, 7.54, 7.98, 8.05, 9.39, 10.28, 9.68, 11.55, 12.07, 13.39, 17.42, 19.21, 16.91, 14.28, 13.39, 13.86, 14.3, 14.3, 14.29, 13.78, 13.78, 13.72, 14.16, 14.16, 12.5, 11.18, 10.28, 10.28, 9.83, 9.83, 8.94, 7.92, 7.85, 7.85, 13.41, 13.41, 13.41, 13.41, 13.86, 13.86, 13.8, 14.25, 14.7, 14.55, 14.95, 14.95, 14.95, 14.51, 14.51, 14.75, 14.75, 14.75, 14.75, 15.25, 15.68, 15.68, 15.74, 15.74, 15.3, 14.86, 14.9, 14.47, 14.25, 14.75, 14.94, 15.08, 15.08, 15.17, 15.62, 15.62, 16.06, 16.06, 16.5, 16.54, 16.54, 16.09, 15.2, 13.41, 12.07, 11.6, 12.49, 13.29, 13.15, 12.71, 10.54, 10.2, 9.32, 8.87, 8.42, 7.51, 6.68, 6.23, 5.78, 5.33, 4.92, 7.89, 7.89, 7.94, 8.38, 8.38, 7.37, 8.44, 8.9, 9.35, 9.8, 11.55, 12.96, 13.41, 15.65, 16.97, 17.15, 16.69, 16.01, 15.65, 14.75, 14.73, 14.3, 13.41, 12.96, 13.86, 14.75, 12.96, 11.62, 11.18, 10.73, 10.25, 10.28, 9.39, 8.46, 7.45, 8.29, 8.29, 13.41, 13.41, 13.41, 13.41, 13.86, 13.86, 14.25, 14.25, 14.7, 14.55, 14.95, 14.95, 14.95, 14.51, 14.51, 14.95, 14.75, 14.75, 14.75, 15.25, 15.25, 15.68, 15.74, 15.74, 15.3, 14.86, 14.9, 14.47, 14.47, 14.9, 14.9, 15.08, 14.64, 14.64, 14.72, 15.17, 15.62, 15.61, 16.06, 16.05, 16.09, 16.09, 15.65, 13.41, 12.07, 11.6, 11.96, 12.71, 13.15, 12.53, 11.23, 10.11, 9.67, 9.23, 8.33, 7.97, 7.06, 6.6, 6.23, 5.34, 5.33, 5.36, 8.05, 7.54, 7.98, 8.85, 7.81, 8.44, 8.9, 8.94, 10.73, 10.25, 13.36, 13.41, 14.75, 15.2, 16.07, 16.91, 17.42, 17.88, 16.52, 14.23, 12.88, 12.5, 12.05, 11.62, 11.18, 10.73, 10.73, 10.28, 10.28, 10.28, 10.28, 9.39, 8.46, 7.89, 8.06, 8.06, 12.96, 12.96, 13.41, 13.41, 13.86, 13.86, 14.25, 14.26, 14.7, 14.69, 14.95, 14.95, 14.95, 14.95, 14.51, 14.51, 14.75, 14.75, 14.75, 15.18, 15.25, 15.25, 15.68, 15.74, 15.3, 14.86, 14.86, 14.42, 14.47, 14.9, 14.9, 14.9, 14.62, 14.64, 14.64, 14.64, 14.72, 15.17, 15.61, 16.06, 16.05, 16.05, 15.2, 12.96, 10.28, 10.71, 11.52, 12.27, 12.46, 12.53, 11.66, 10.8, 9.93, 9.64, 8.77, 7.87, 7.4, 7.06, 5.7, 5.78, 5.33, 5.36, 8.05, 7.6, 7.98, 8.85, 8.0, 8.49, 8.94, 8.94, 9.39, 10.28, 12.45, 14.71, 14.75, 14.28, 14.73, 16.07, 17.42, 18.76, 17.42, 13.84, 12.5, 12.05, 11.62, 11.18, 11.18, 10.28, 10.73, 10.73, 10.73, 10.28, 10.28, 9.8, 8.9, 7.92, 7.71, 7.63, 12.96, 12.96, 13.41, 13.41, 13.86, 13.86, 14.25, 14.26, 14.7, 14.69, 14.95, 14.99, 14.95, 14.95, 14.95, 14.51, 14.51, 14.75, 14.75, 15.18, 15.25, 15.25, 15.25, 15.74, 15.3, 14.86, 14.42, 14.42, 14.42, 14.42, 14.9, 14.47, 14.62, 14.62, 14.62, 14.64, 14.19, 15.07, 15.07, 15.51, 15.49, 16.05, 14.75, 12.07, 9.83, 10.71, 11.42, 11.87, 12.63, 12.21, 11.79, 10.95, 10.37, 9.5, 8.64, 8.3, 7.4, 7.37, 6.16, 5.7, 5.33, 5.33, 8.05, 7.15, 7.6, 8.49, 8.49, 8.05, 8.49, 8.49, 8.94, 10.28, 12.07, 13.83, 16.07, 14.75, 14.22, 15.45, 15.95, 17.81, 16.07, 14.3, 13.41, 12.52, 12.07, 11.62, 11.62, 11.18, 10.73, 10.73, 10.73, 10.28, 10.25, 9.8, 9.35, 8.36, 8.19, 7.71, 12.96, 12.96, 12.96, 13.41, 13.86, 13.86, 14.25, 14.25, 14.69, 14.69, 14.99, 14.99, 14.95, 14.95, 14.95, 14.51, 14.51, 14.51, 14.75, 14.75, 15.18, 15.25, 15.25, 15.25, 15.3, 14.86, 14.42, 14.42, 13.99, 13.99, 14.42, 14.42, 14.47, 14.47, 14.03, 14.62, 14.18, 14.18, 15.07, 15.07, 15.49, 15.46, 14.55, 11.84, 10.68, 11.98, 13.44, 13.15, 12.79, 12.39, 11.77, 11.27, 10.1, 9.68, 8.6, 8.17, 7.4, 6.9, 6.04, 6.14, 5.7, 5.33, 5.36, 8.05, 8.05, 8.05, 7.6, 8.05, 8.05, 8.49, 8.94, 8.94, 11.62, 12.96, 15.02, 14.99, 14.3, 14.55, 14.4, 14.13, 14.23, 14.29, 13.84, 12.94, 12.5, 12.05, 11.6, 11.6, 11.59, 11.62, 10.73, 10.28, 10.28, 9.83, 9.35, 8.9, 8.36, 8.19, 12.96, 12.96, 12.96, 13.41, 13.41, 13.86, 13.8, 14.25, 14.25, 14.7, 14.55, 14.55, 14.95, 14.95, 14.51, 14.51, 14.51, 14.51, 14.31, 14.75, 14.75, 14.81, 14.81, 15.25, 15.25, 15.3, 14.42, 13.99, 13.99, 13.99, 13.99, 14.42, 14.42, 14.47, 14.03, 14.03, 14.03, 13.59, 14.03, 14.42, 14.42, 14.81, 13.88, 11.99, 10.58, 12.1, 14.42, 14.84, 13.48, 12.79, 12.62, 11.39, 9.9, 9.18, 8.42, 8.17, 7.69, 6.79, 6.36, 6.47, 5.7, 5.24, 7.6, 7.15, 7.6, 8.05, 7.6, 8.49, 7.6, 8.0, 8.45, 8.94, 10.73, 11.18, 12.47, 15.02, 16.01, 16.09, 12.74, 11.36, 11.42, 12.33, 12.33, 12.33, 11.89, 11.86, 11.42, 11.4, 11.51, 11.51, 10.7, 10.25, 10.28, 9.83, 9.39, 8.94, 8.9, 8.9, 12.52, 12.52, 12.96, 12.96, 13.41, 13.41, 13.8, 14.25, 14.26, 14.11, 14.55, 14.55, 14.51, 14.51, 14.51, 14.51, 14.51, 14.51, 14.51, 14.31, 14.75, 14.75, 14.81, 14.81, 14.81, 14.81, 14.37, 13.99, 13.99, 13.55, 13.55, 13.55, 13.99, 13.99, 14.03, 13.59, 13.59, 13.15, 13.55, 13.99, 13.99, 13.94, 13.25, 11.87, 10.96, 12.15, 14.25, 15.02, 14.03, 13.59, 12.85, 11.56, 9.13, 8.82, 8.48, 8.12, 7.51, 7.09, 7.21, 6.79, 6.04, 5.57, 5.24, 7.6, 7.6, 7.6, 7.94, 8.05, 7.1, 8.0, 8.45, 8.49, 10.2, 9.8, 11.57, 13.41, 15.57, 17.7, 15.62, 12.07, 11.15, 11.6, 12.05, 12.49, 12.41, 11.95, 11.06, 11.06, 11.06, 11.06, 11.06, 10.62, 10.7, 10.25, 9.39, 8.49, 8.49, 8.49, 12.52, 12.52, 12.96, 12.96, 13.41, 13.41, 13.8, 13.8, 13.81, 14.11, 14.11, 14.51, 14.51, 14.51, 14.51, 14.51, 14.51, 14.51, 14.51, 14.31, 14.75, 14.75, 14.75, 14.81, 14.81, 14.81, 14.37, 13.94, 13.55, 13.55, 13.11, 13.11, 13.11, 13.32, 13.75, 12.89, 12.89, 12.89, 12.89, 12.89, 13.25, 13.25, 12.82, 11.54, 10.85, 12.21, 13.82, 14.16, 13.37, 12.47, 12.02, 10.96, 9.21, 8.99, 8.63, 8.63, 7.51, 7.51, 7.09, 7.21, 6.3, 5.99, 5.57, 7.6, 7.6, 7.45, 7.94, 7.94, 6.94, 7.42, 8.05, 8.45, 9.24, 10.14, 10.89, 11.96, 14.3, 16.82, 16.05, 15.71, 15.53, 15.62, 15.17, 13.86, 12.96, 12.07, 11.62, 11.15, 11.15, 11.15, 11.06, 11.06, 10.62, 9.8, 9.39, 8.94, 8.94, 8.94, 12.52, 12.52, 12.96, 12.96, 13.41, 13.41, 13.8, 13.8, 14.25, 14.11, 14.07, 14.51, 14.51, 14.51, 14.51, 14.51, 14.51, 14.51, 14.51, 14.31, 14.75, 14.75, 14.75, 14.81, 14.81, 14.81, 14.37, 13.94, 13.5, 13.11, 12.89, 12.89, 12.89, 12.89, 12.89, 12.89, 12.46, 12.89, 12.89, 12.89, 12.82, 12.82, 12.39, 11.11, 10.43, 11.61, 12.89, 13.11, 13.11, 11.93, 11.05, 10.25, 8.9, 8.9, 8.33, 8.19, 7.63, 7.43, 7.01, 7.01, 6.79, 6.3, 5.99, 5.7, 8.05, 7.89, 7.94, 6.88, 7.37, 7.54, 8.94, 8.44, 9.21, 9.97, 10.6, 11.06, 12.52, 14.66, 16.22, 15.84, 17.05, 19.08, 20.34, 18.3, 13.86, 12.96, 12.52, 12.07, 11.6, 11.15, 11.57, 10.16, 10.14, 9.8, 9.35, 8.49, 8.49, 8.49, 12.52, 12.52, 12.96, 12.96, 12.96, 13.41, 13.36, 13.8, 14.25, 14.07, 14.07, 14.07, 14.51, 14.51, 14.51, 14.51, 14.51, 14.51, 14.51, 14.51, 14.31, 14.75, 14.75, 14.75, 14.81, 14.81, 14.37, 13.94, 13.25, 13.32, 12.89, 12.46, 12.46, 12.46, 12.46, 12.46, 12.46, 12.46, 12.89, 12.39, 12.39, 12.39, 12.39, 11.11, 10.68, 11.54, 12.39, 12.39, 12.63, 11.76, 10.89, 9.72, 8.82, 8.46, 8.01, 8.01, 7.92, 7.76, 7.21, 7.01, 6.6, 6.3, 5.99, 5.7, 5.81, 8.49, 8.05, 7.15, 7.6, 8.05, 8.0, 8.29, 8.77, 9.68, 10.14, 10.7, 11.62, 12.96, 14.22, 14.21, 15.35, 17.56, 20.16, 18.24, 16.09, 14.3, 12.5, 12.05, 11.52, 11.57, 10.66, 9.7, 9.7, 9.24, 9.34, 8.89, 8.89, 8.89, 12.52, 12.52, 12.96, 12.96, 13.41, 13.36, 13.36, 13.8, 13.63, 14.07, 14.07, 14.07, 14.51, 14.51, 14.51, 14.51, 14.51, 14.51, 14.51, 14.51, 14.31, 14.75, 14.75, 14.75, 14.75, 14.81, 14.37, 13.67, 13.25, 13.25, 12.89, 12.46, 12.46, 12.04, 12.04, 12.04, 12.04, 11.96, 12.39, 12.39, 12.39, 12.39, 12.39, 11.54, 10.68, 11.54, 11.96, 11.96, 11.96, 11.28, 10.41, 9.54, 8.82, 8.38, 8.02, 8.01, 8.01, 7.48, 7.76, 7.14, 6.72, 5.88, 5.57, 5.24, 5.36, 8.49, 7.6, 7.94, 8.38, 7.81, 8.29, 8.29, 8.77, 9.35, 10.25, 10.73, 11.18, 12.52, 12.94, 12.74, 13.92, 16.05, 19.76, 18.88, 17.41, 15.65, 13.33, 12.33, 11.84, 10.45, 10.14, 9.7, 9.24, 9.24, 9.64, 9.77, 9.77, 9.77, 12.52, 12.52, 12.96, 12.96, 12.96, 13.36, 13.8, 13.8, 13.63, 13.63, 14.07, 14.07, 14.07, 14.51, 14.51, 14.51, 14.51, 14.51, 14.51, 14.07, 13.8, 14.31, 14.75, 14.75, 14.75, 14.81, 14.1, 13.67, 13.25, 13.25, 12.82, 12.89, 12.46, 11.79, 11.79, 11.37, 11.27, 11.96, 11.96, 11.96, 11.96, 11.96, 11.96, 11.54, 10.68, 11.54, 11.96, 11.96, 11.45, 10.84, 10.41, 9.97, 9.11, 8.82, 7.94, 7.5, 7.5, 7.5, 7.48, 7.33, 7.14, 6.23, 5.09, 4.77, 4.92, 8.05, 7.6, 7.5, 7.94, 7.98, 8.89, 8.44, 8.9, 9.35, 9.8, 10.25, 10.73, 11.62, 12.04, 12.41, 13.31, 15.01, 16.91, 19.18, 19.47, 16.99, 13.23, 11.52, 10.6, 10.1, 10.18, 9.54, 9.24, 9.21, 9.33, 9.32, 9.32, 9.32, 12.52, 12.52, 12.96, 12.96, 12.96, 13.36, 13.8, 13.8, 13.8, 14.07, 14.07, 14.07, 14.51, 14.51, 14.51, 14.51, 14.51, 14.51, 14.51, 14.51, 14.23, 14.23, 14.75, 14.75, 14.75, 14.1, 14.1, 13.67, 13.25, 12.82, 12.82, 12.82, 12.1, 11.68, 11.68, 11.54, 11.54, 11.54, 11.54, 11.87, 11.87, 11.87, 11.87, 11.54, 11.11, 11.96, 12.39, 11.87, 11.03, 10.41, 9.92, 9.49, 9.49, 9.06, 8.38, 7.94, 7.5, 7.06, 7.06, 7.33, 7.33, 6.23, 5.09, 4.73, 4.73, 6.36, 6.64, 7.1, 7.54, 8.44, 8.77, 9.21, 9.34, 9.35, 9.35, 9.8, 10.28, 10.73, 11.18, 11.59, 12.49, 13.32, 14.4, 16.91, 18.91, 17.86, 10.52, 9.84, 9.14, 9.45, 8.8, 9.24, 8.56, 7.85, 7.85, 7.98, 7.98, 7.98, 12.52, 12.52, 12.96, 12.96, 12.96, 13.36, 13.8, 13.8, 13.8, 14.25, 14.25, 14.07, 14.51, 14.51, 14.51, 14.51, 14.51, 14.51, 14.51, 14.23, 14.23, 14.23, 14.75, 14.75, 13.99, 13.99, 14.1, 13.67, 13.25, 13.25, 12.82, 12.82, 12.39, 11.96, 11.96, 11.54, 11.54, 11.54, 11.45, 11.45, 11.45, 11.45, 11.45, 11.45, 11.54, 11.87, 12.3, 11.87, 11.03, 10.35, 9.92, 9.49, 9.49, 8.63, 8.24, 7.81, 7.81, 7.37, 6.94, 6.94, 6.9, 5.81, 5.09, 4.93, 4.52, 5.94, 5.94, 6.64, 7.1, 7.81, 8.06, 8.56, 8.72, 9.64, 9.24, 9.35, 9.79, 9.83, 10.73, 11.18, 12.07, 12.49, 12.86, 14.55, 17.68, 15.2, 9.58, 7.32, 6.98, 7.31, 7.68, 7.32, 7.6, 7.2, 6.45, 6.45, 6.45, 6.45, 12.52, 12.52, 12.52, 12.96, 12.96, 12.91, 13.36, 13.8, 13.8, 14.25, 14.25, 14.51, 14.51, 14.51, 14.51, 14.51, 14.51, 14.51, 14.51, 14.23, 14.23, 14.23, 14.23, 14.31, 13.99, 13.99, 14.1, 13.67, 13.25, 13.25, 12.82, 12.82, 12.39, 12.39, 11.96, 11.54, 11.54, 11.11, 11.03, 11.03, 11.45, 11.45, 11.45, 11.03, 11.45, 11.87, 12.3, 11.87, 11.45, 10.78, 9.92, 9.49, 9.49, 8.63, 8.24, 7.81, 7.81, 7.37, 7.37, 6.94, 6.3, 5.81, 4.9, 4.8, 4.66, 4.66, 6.36, 5.94, 6.45, 6.57, 7.12, 7.76, 8.21, 8.6, 9.42, 9.24, 9.79, 9.83, 10.28, 11.18, 11.62, 11.62, 12.52, 14.3, 18.33, 16.54, 10.7, 7.53, 5.77, 6.01, 5.94, 6.32, 6.45, 6.18, 5.58, 6.57, 6.57, 6.57, 12.52, 12.52, 12.52, 12.96, 12.91, 12.91, 13.36, 13.8, 13.8, 14.25, 14.07, 14.51, 14.51, 14.51, 14.51, 14.51, 14.51, 14.51, 14.23, 14.23, 14.23, 14.23, 14.23, 13.99, 13.99, 13.99, 13.57, 13.67, 13.25, 12.82, 12.82, 12.39, 12.39, 12.39, 11.96, 11.54, 11.54, 11.03, 11.03, 11.03, 11.03, 11.03, 11.03, 11.03, 11.03, 11.03, 11.45, 11.45, 11.34, 10.78, 10.35, 9.66, 9.24, 8.82, 8.48, 8.06, 7.63, 7.63, 7.21, 6.79, 6.3, 5.6, 5.08, 4.93, 4.73, 4.73, 5.58, 5.6, 6.45, 6.88, 7.12, 7.2, 7.2, 7.15, 8.6, 8.72, 9.21, 9.79, 10.25, 10.7, 11.14, 11.62, 12.07, 17.86, 19.14, 16.9, 12.04, 9.35, 6.51, 5.46, 5.37, 5.3, 4.95, 4.58, 5.37, 7.07, 7.07, 7.07, 12.52, 12.52, 12.52, 12.52, 12.91, 12.91, 13.36, 13.36, 13.8, 13.63, 14.07, 14.07, 14.51, 14.51, 14.51, 14.51, 14.51, 14.23, 14.23, 14.66, 14.23, 14.23, 14.23, 13.86, 13.99, 13.57, 13.57, 13.57, 13.15, 12.82, 12.82, 12.39, 12.39, 11.96, 11.96, 11.54, 11.54, 11.03, 11.03, 10.6, 11.03, 11.03, 11.03, 11.03, 10.6, 10.6, 11.03, 10.92, 10.92, 10.78, 10.08, 9.66, 9.24, 9.24, 8.91, 8.48, 8.06, 8.12, 7.69, 7.21, 6.51, 6.1, 5.6, 5.21, 5.01, 5.01, 5.21, 5.31, 7.08, 7.08, 7.37, 8.06, 7.6, 7.2, 6.55, 7.58, 8.58, 9.49, 9.97, 10.41, 10.58, 11.05, 13.83, 17.41, 19.14, 16.36, 11.53, 9.81, 8.46, 6.98, 5.43, 4.58, 4.22, 4.22, 5.59, 6.32, 6.32, 6.32, 12.52, 12.52, 12.52, 12.52, 12.47, 12.91, 13.36, 13.8, 13.8, 13.63, 13.63, 14.07, 14.51, 14.51, 14.51, 14.51, 14.23, 14.23, 14.23, 14.66, 14.66, 14.23, 14.23, 13.86, 13.57, 13.57, 13.57, 13.15, 13.15, 12.72, 12.72, 12.3, 12.3, 11.87, 11.87, 11.45, 11.45, 11.03, 11.03, 10.6, 10.6, 11.03, 11.03, 10.6, 10.6, 10.18, 10.08, 10.08, 10.08, 10.08, 10.08, 9.55, 8.95, 8.95, 9.08, 8.67, 8.34, 8.34, 7.93, 7.01, 6.6, 6.28, 5.75, 5.21, 5.58, 5.05, 5.58, 5.08, 6.88, 6.94, 7.85, 8.29, 8.73, 8.73, 8.73, 7.76, 7.81, 8.8, 9.36, 9.66, 9.92, 10.41, 12.94, 15.2, 17.86, 15.53, 10.45, 9.49, 8.19, 6.98, 6.17, 6.44, 2.99, 3.32, 5.63, 6.01, 6.01, 6.01, 12.52, 12.52, 12.52, 12.47, 12.47, 12.47, 12.91, 13.36, 13.19, 13.19, 13.63, 14.07, 14.07, 14.51, 14.51, 14.23, 14.23, 14.23, 14.23, 14.66, 14.66, 14.66, 14.66, 13.86, 13.44, 13.57, 13.57, 13.15, 13.15, 12.72, 12.3, 12.3, 11.87, 11.87, 11.87, 11.45, 11.45, 10.73, 10.32, 10.32, 10.5, 10.5, 10.5, 10.6, 10.18, 10.08, 10.08, 10.08, 9.66, 9.66, 9.55, 9.55, 9.36, 8.63, 8.8, 8.67, 8.76, 8.12, 7.71, 7.2, 7.2, 6.28, 6.28, 5.75, 5.58, 5.29, 5.05, 5.58, 5.72, 7.12, 7.37, 7.85, 8.44, 8.89, 8.9, 8.77, 8.99, 8.8, 9.36, 9.36, 9.66, 10.41, 11.95, 14.28, 15.65, 15.17, 8.67, 7.2, 6.4, 5.09, 7.15, 8.06, 5.21, 4.2, 6.64, 8.4, 8.4, 8.4, 12.52, 12.52, 12.52, 12.47, 12.91, 12.91, 12.91, 12.75, 13.19, 13.19, 13.63, 14.07, 14.07, 14.51, 14.23, 14.23, 14.23, 14.23, 14.23, 14.23, 14.66, 14.66, 14.66, 13.86, 13.44, 13.44, 13.57, 13.15, 12.72, 12.72, 12.3, 11.87, 11.87, 11.87, 11.45, 11.45, 11.14, 10.73, 10.73, 10.32, 10.17, 10.5, 10.5, 10.5, 10.08, 10.08, 10.08, 9.66, 9.66, 9.55, 9.55, 9.2, 9.03, 8.63, 8.63, 8.8, 8.4, 8.12, 8.12, 7.71, 7.2, 6.8, 6.28, 6.28, 5.86, 5.65, 5.65, 5.38, 5.58, 6.21, 6.99, 7.12, 7.53, 7.81, 8.29, 8.77, 8.99, 8.8, 9.36, 9.36, 9.66, 9.97, 10.89, 12.86, 14.3, 15.2, 9.64, 5.6, 3.76, 5.37, 8.48, 9.11, 7.81, 6.64, 8.4, 9.39, 9.39, 9.39, 12.52, 12.52, 12.52, 12.47, 12.91, 12.91, 12.75, 13.19, 13.19, 13.19, 13.63, 13.63, 14.07, 14.23, 14.23, 14.23, 14.23, 14.23, 14.23, 14.66, 14.66, 14.66, 14.28, 13.86, 13.44, 13.44, 13.02, 13.15, 12.72, 12.3, 12.3, 11.87, 11.87, 11.45, 11.45, 11.14, 10.73, 10.73, 10.73, 10.17, 10.17, 10.5, 10.5, 10.08, 10.08, 10.08, 10.08, 9.66, 9.55, 9.55, 9.2, 8.43, 9.03, 8.63, 8.63, 8.3, 8.11, 8.11, 7.72, 7.34, 6.95, 6.56, 6.67, 6.28, 5.86, 5.86, 5.65, 5.65, 5.38, 6.18, 6.18, 6.6, 6.57, 7.12, 7.2, 8.17, 8.72, 8.4, 8.95, 9.24, 9.66, 9.97, 10.89, 12.27, 13.76, 14.72, 12.45, 7.2, 0.0, 0.0, 6.64, 8.8, 8.4, 7.81, 8.4, 8.4, 8.4, 8.4, 12.52, 12.52, 12.47, 12.47, 12.9, 12.9, 12.75, 13.19, 13.19, 13.19, 13.63, 13.63, 13.8, 13.8, 14.23, 13.8, 13.8, 14.23, 14.23, 14.13, 14.56, 14.11, 14.11, 14.28, 13.44, 13.02, 13.02, 13.02, 12.6, 12.3, 12.3, 11.87, 11.87, 11.45, 11.14, 11.14, 11.14, 10.73, 10.73, 10.17, 10.17, 10.17, 10.08, 10.08, 10.08, 10.08, 9.66, 9.66, 9.55, 9.55, 9.2, 8.43, 8.63, 8.63, 8.63, 7.92, 8.11, 8.11, 8.11, 7.72, 7.34, 6.95, 6.41, 6.03, 5.86, 5.86, 5.86, 6.0, 5.68, 5.59, 6.13, 6.8, 6.88, 6.94, 7.12, 8.06, 8.17, 8.72, 8.4, 9.24, 9.66, 10.18, 10.68, 12.09, 13.65, 15.07, 13.8, 10.18, 2.69, 0.0, 2.97, 6.95, 8.8, 8.8, 8.91, 8.91, 8.91, 8.91, 12.45, 12.45, 12.45, 12.45, 12.45, 12.71, 12.71, 12.71, 13.15, 13.15, 13.59, 13.37, 13.8, 13.8, 13.8, 13.7, 13.7, 13.7, 14.13, 13.7, 13.7, 14.11, 14.11, 13.7, 13.44, 13.02, 13.02, 12.6, 12.6, 12.18, 12.3, 11.87, 11.45, 11.45, 11.14, 11.14, 11.14, 10.73, 10.58, 10.58, 10.17, 10.17, 10.17, 10.08, 10.08, 10.08, 9.66, 9.55, 9.55, 9.2, 8.8, 8.43, 8.3, 8.63, 8.63, 7.92, 7.92, 7.72, 8.11, 7.72, 7.72, 7.34, 6.79, 6.41, 6.23, 6.23, 6.23, 6.23, 6.28, 5.93, 6.03, 7.35, 6.65, 7.6, 7.1, 7.85, 8.14, 8.72, 8.72, 8.95, 9.36, 9.9, 10.43, 11.79, 12.58, 15.07, 14.14, 11.35, 7.27, 0.0, 2.28, 4.2, 6.95, 7.51, 7.51, 8.0, 8.0, 8.0, 12.45, 12.45, 12.9, 12.9, 12.9, 12.71, 12.71, 12.71, 12.71, 13.15, 12.85, 13.27, 13.7, 13.7, 13.7, 13.7, 13.7, 13.7, 13.28, 13.7, 13.7, 13.7, 13.7, 13.7, 13.28, 13.02, 13.02, 12.6, 12.6, 12.18, 12.18, 11.87, 11.45, 11.14, 11.14, 10.73, 10.73, 10.73, 10.58, 10.17, 10.17, 10.17, 10.17, 9.77, 9.77, 9.77, 9.6, 9.2, 9.2, 9.2, 8.43, 8.06, 8.06, 8.06, 7.69, 7.92, 7.92, 7.54, 7.72, 7.72, 7.72, 7.17, 7.17, 6.79, 6.23, 6.23, 6.23, 6.28, 6.28, 5.93, 5.86, 6.0, 5.57, 7.6, 6.71, 7.37, 8.06, 8.72, 8.4, 8.95, 9.03, 9.9, 10.43, 11.37, 12.09, 13.99, 13.7, 11.88, 10.0, 2.39, 0.0, 1.93, 4.83, 6.32, 6.32, 7.15, 7.15, 7.15, 12.45, 12.45, 12.9, 12.9, 12.9, 12.71, 12.71, 12.71, 12.71, 13.15, 12.85, 13.27, 13.7, 13.7, 13.7, 13.7, 13.7, 13.7, 13.28, 13.7, 13.7, 13.7, 13.7, 13.7, 13.28, 13.02, 13.02, 12.6, 12.6, 12.18, 12.18, 11.87, 11.45, 11.14, 11.14, 10.73, 10.73, 10.73, 10.58, 10.17, 10.17, 10.17, 10.17, 9.77, 9.77, 9.77, 9.6, 9.2, 9.2, 9.2, 8.43, 8.06, 8.06, 8.06, 7.69, 7.92, 7.92, 7.54, 7.72, 7.72, 7.72, 7.17, 7.17, 6.79, 6.23, 6.23, 6.23, 6.28, 6.28, 5.93, 5.86, 6.0, 5.57, 7.6, 6.71, 7.37, 8.56, 8.72, 8.4, 8.95, 9.03, 9.6, 10.0, 10.85, 11.18, 12.63, 13.23, 12.31, 11.03, 6.71, 0.0, 0.0, 1.84, 3.49, 5.63, 5.63, 5.63, 5.63]}, {"header": {"dx": 0.06612293990616946, "dy": 0.0552356325346848, "nx": 98, "ny": 59, "la1": 35.046912555036876, "la2": 31.78801023549047, "lo1": -121.43107172385933, "lo2": -114.95102361305473, "refTime": "2026040923", "parameterCategory": 1, "parameterNumber": 3}, "data": [0.0, 0.0, -1.63, -1.63, -1.63, -1.63, -1.63, -1.83, -1.83, -1.83, 0.0, 0.0, 0.0, -1.39, -1.28, 0.0, 0.0, 0.0, 0.0, 0.0, 0.0, 0.0, 0.99, 0.89, 0.0, 0.0, 0.0, 0.0, -0.89, -2.82, -6.23, -6.26, -6.26, -6.71, -6.58, -6.14, -6.64, -6.13, -5.93, -5.03, -5.44, -5.46, -5.98, -5.8, -5.63, -6.47, -5.51, -4.55, -2.79, -1.23, 0.0, 0.0, 0.0, 0.96, 0.92, 1.83, 1.9, 2.81, 2.81, 3.68, 3.68, 3.68, 3.56, 3.56, 3.34, 3.46, 3.57, 3.36, 3.36, 2.47, 2.54, 2.45, 1.6, 1.6, 1.71, 1.64, 1.64, 1.54, 0.92, 0.96, 0.0, 0.0, 0.0, 0.0, 0.0, 0.0, 0.0, 0.0, 0.0, 0.0, 0.0, 0.0, 0.0, 0.0, 4.39, 8.85, 9.1, 8.23, 0.0, 0.0, 0.0, -1.63, -1.63, -1.63, -1.68, -1.89, -1.83, -2.09, 0.0, 0.0, 0.0, -1.33, -1.91, -1.84, -1.28, 0.0, 0.0, 0.0, 0.0, 0.0, 1.54, 1.47, 0.89, 0.0, 0.0, 0.0, -0.81, -2.67, -5.75, -6.26, -6.26, -6.07, -6.14, -7.01, -7.89, -7.63, -7.28, -6.98, -6.95, -8.22, -8.1, -7.93, -8.51, -7.4, -6.72, -3.36, -1.54, 0.0, 0.0, 0.97, 1.77, 3.19, 4.06, 4.36, 4.36, 4.51, 5.28, 4.51, 4.51, 4.36, 4.36, 4.36, 3.56, 3.34, 3.46, 2.63, 2.63, 2.54, 2.54, 1.65, 1.71, 1.71, 1.71, 0.83, 0.83, 1.54, 0.92, 0.96, 0.0, 0.0, 0.0, 0.0, 0.0, 0.0, 0.0, 0.0, 0.0, 0.0, 0.0, 0.0, 0.0, 0.0, 4.39, 8.85, 9.1, 8.23, 0.0, 0.0, 0.0, -1.63, -1.63, -1.63, -1.68, -1.89, -1.89, -2.02, 0.0, 0.0, -1.64, -1.44, -2.33, -2.6, -2.42, -2.42, -1.23, 0.0, 0.0, 0.0, 0.0, 1.69, 1.26, 0.85, 0.0, 0.0, -0.81, -2.54, -6.32, -7.06, -7.01, -7.21, -6.51, -8.06, -7.89, -8.82, -9.03, -9.45, -9.86, -10.43, -10.6, -11.77, -10.91, -7.47, -3.95, 0.0, 1.21, 2.82, 3.53, 4.01, 4.87, 5.72, 5.99, 5.8, 5.8, 6.0, 6.0, 5.28, 5.28, 5.11, 4.36, 4.36, 3.56, 3.34, 2.54, 2.54, 2.54, 2.54, 2.72, 2.72, 1.77, 1.71, 1.64, 0.83, 0.0, 0.0, 0.0, 0.0, 0.0, 0.0, 0.0, 0.0, 0.0, 0.0, -0.8, -0.94, -1.11, -1.22, -1.77, -1.83, 0.0, 1.5, 7.02, 8.15, 7.51, 7.13, 0.0, 0.0, 0.0, -1.63, -1.63, -1.63, -1.68, -1.89, -1.83, -1.96, -1.98, -1.76, -1.98, -1.39, -2.71, -3.53, -3.68, -3.82, -3.47, -2.19, -1.23, 0.0, 0.0, 0.0, 1.07, 1.39, 0.85, 0.0, -0.89, -3.45, -6.01, -8.22, -8.48, -8.48, -8.0, -8.91, -9.33, -10.84, -11.18, -12.56, -13.65, -15.02, -13.59, -10.65, -6.12, 0.0, 3.3, 4.15, 4.92, 5.63, 5.77, 6.56, 6.56, 6.56, 6.56, 6.43, 5.8, 6.0, 6.0, 5.28, 5.11, 4.36, 3.44, 3.44, 2.62, 2.62, 2.54, 3.04, 3.73, 4.81, 4.66, 4.34, 4.34, 2.62, 1.48, 0.8, 0.0, 0.0, 0.0, 0.0, 0.0, 0.0, -0.85, -0.89, -0.89, -0.99, -1.11, -1.05, -1.11, 0.0, 0.0, 0.0, 1.71, 5.54, 7.13, 7.87, 7.13, 5.82, 0.0, 0.0, 0.0, 0.0, -1.63, -1.63, -1.89, -1.89, -1.83, -1.96, -1.98, -1.76, -1.91, -1.58, -2.6, -3.68, -4.72, -4.9, -4.9, -3.82, -1.77, -1.76, 0.0, 0.0, 0.0, 0.0, 0.0, 0.0, 0.0, -2.06, -5.72, -8.54, -10.09, -8.22, -6.71, -9.3, -10.6, -12.58, -15.04, -17.16, -17.19, -14.19, -10.75, -4.24, 1.83, 6.4, 7.14, 6.98, 7.36, 7.24, 6.56, 6.56, 5.93, 5.93, 5.6, 5.8, 5.8, 5.8, 4.81, 4.1, 3.44, 3.44, 2.53, 2.53, 1.77, 2.62, 4.49, 6.31, 7.44, 7.26, 6.99, 6.56, 5.41, 3.42, 0.96, 0.0, 0.0, 0.0, 0.0, -1.15, -1.47, -0.89, -0.89, -0.89, -0.94, 0.0, 0.0, 1.26, 3.19, 5.63, 5.28, 4.75, 6.24, 6.79, 7.51, 7.13, 5.82, 5.2, 0.0, 0.0, 0.0, 0.0, -1.83, -1.83, -1.89, -1.83, -3.58, -3.81, -1.98, -1.69, -1.84, -2.95, -2.71, -3.53, -3.68, -3.82, -4.9, -5.08, -3.96, -3.82, -2.2, 0.0, 0.0, 0.0, 0.0, 1.84, 2.1, 2.1, 0.0, -5.21, -6.95, -7.24, -6.0, -6.0, -9.17, -12.39, -17.2, -18.05, -15.27, -11.9, -3.04, 6.44, 8.15, 9.36, 8.07, 7.36, 7.24, 6.7, 5.86, 5.72, 5.72, 5.93, 5.8, 5.8, 5.11, 4.81, 4.1, 3.23, 2.37, 1.64, 1.64, 1.71, 2.81, 5.6, 8.37, 8.53, 8.72, 8.31, 6.78, 5.99, 5.62, 3.72, 2.57, 1.25, 0.0, 0.94, 0.94, -1.33, -1.65, -0.94, 0.0, 0.0, 1.58, 4.37, 6.64, 8.01, 10.12, 9.02, 8.15, 8.85, 7.51, 6.79, 7.13, 6.11, 5.2, 5.98, 0.0, 0.0, 0.0, 0.0, -1.83, -1.83, -3.58, -3.58, -3.47, -3.81, -3.82, -1.62, -1.76, -2.95, -3.82, -3.53, -3.82, -3.96, -5.08, -5.6, -4.43, -4.11, -2.89, 0.0, 0.0, 0.0, 2.5, 4.52, 5.8, 5.32, 4.8, 0.0, -2.39, -3.99, -3.06, 0.0, 1.77, 0.0, -13.86, -13.41, -13.88, 0.0, 11.99, 11.99, 12.0, 10.12, 8.85, 7.24, 7.24, 6.94, 5.86, 5.51, 5.93, 5.6, 5.6, 5.11, 3.96, 3.23, 2.45, 1.65, 1.71, 0.83, 0.83, 1.98, 7.41, 9.69, 10.01, 8.53, 7.93, 6.76, 5.81, 4.97, 3.57, 3.42, 2.72, 2.8, 1.53, 2.06, 2.17, 1.39, 0.0, 0.0, 5.21, 8.8, 10.18, 10.68, 10.41, 10.65, 10.12, 9.17, 8.85, 9.08, 6.79, 6.45, 5.82, 5.2, 4.88, 5.32, 0.0, 0.0, 0.0, 0.0, -1.83, -1.83, -3.58, -3.58, -3.47, -3.68, -5.0, -3.65, -3.82, -4.4, -5.6, -5.43, -5.4, -4.81, -4.43, -4.98, -4.98, -4.58, -3.53, -2.57, -1.38, 0.0, 0.0, 5.09, 6.6, 5.28, 3.32, 1.71, 0.0, 0.0, 3.53, 6.44, 6.21, 5.43, 0.0, -10.4, -9.17, 11.53, 14.79, 14.75, 13.1, 10.86, 8.22, 7.24, 6.7, 6.67, 5.86, 5.72, 5.6, 5.6, 4.93, 4.06, 3.32, 2.53, 1.64, 1.64, 0.83, 0.0, 1.01, 7.56, 10.4, 11.26, 9.96, 7.36, 6.24, 5.6, 4.65, 3.68, 2.9, 2.02, 1.17, 1.26, 1.29, 1.33, 1.55, 2.02, 5.81, 8.53, 9.64, 10.73, 11.91, 11.6, 9.77, 8.38, 9.17, 8.53, 9.09, 5.82, 5.84, 6.01, 4.21, 4.21, 4.88, 6.3, 0.0, 0.0, 0.0, -1.77, -1.83, -1.83, -3.58, -3.58, -5.02, -5.11, -5.2, -8.22, -7.78, -7.19, -7.28, -8.15, -7.78, -7.44, -6.0, -5.45, -5.28, -5.28, -5.63, -4.11, -2.32, -1.39, 0.0, 0.0, 2.21, 2.02, 1.96, 0.0, 4.81, 8.66, 8.85, 7.72, 5.54, 4.4, 4.6, 3.82, 8.1, 12.0, 12.51, 10.19, 8.82, 7.9, 7.51, 7.19, 6.56, 6.56, 6.9, 6.7, 5.72, 5.72, 4.17, 3.42, 2.61, 2.61, 1.77, 1.77, 0.86, 0.0, 5.1, 10.18, 12.04, 11.28, 9.17, 7.36, 6.57, 5.0, 3.44, 2.47, 0.89, 0.0, 0.0, 0.0, 0.0, 0.0, 0.0, 2.28, 4.01, 11.9, 9.83, 8.94, 9.75, 8.22, 5.4, 5.2, 8.58, 9.13, 6.64, 5.37, 5.24, 4.46, 4.21, 4.21, 6.3, 6.64, 0.0, 0.0, 0.0, -1.77, -1.83, -3.58, -3.2, -3.2, -5.02, -4.55, -6.21, -8.44, -6.7, -6.9, -6.2, -7.11, -9.31, -9.6, -8.18, -7.44, -5.8, -5.8, -6.2, -6.4, -3.93, -1.64, 0.0, 0.0, 0.0, 1.77, 0.0, 2.34, 7.0, 10.65, 9.27, 6.5, 3.77, 3.49, 6.76, 7.78, 8.72, 9.17, 8.22, 7.27, 6.83, 6.41, 5.86, 5.72, 6.43, 6.43, 6.56, 6.7, 6.45, 5.63, 5.2, 4.47, 4.81, 4.81, 3.97, 1.91, 1.01, 4.05, 10.05, 12.8, 12.39, 11.28, 9.56, 8.16, 6.97, 5.2, 2.62, 1.57, 0.0, -0.87, -2.64, -3.56, -3.06, -2.28, -1.33, 0.0, 7.8, 11.7, 12.72, 7.6, 5.69, 0.0, 3.25, 7.27, 10.28, 8.94, 6.36, 5.58, 4.74, 4.56, 4.71, 5.21, 6.58, 6.87, 0.0, 0.0, 0.0, -1.83, -1.83, -3.58, -3.2, -3.2, -4.52, -4.24, -5.8, -7.69, -7.13, -6.2, -5.31, -5.31, -5.81, -4.95, -3.07, -1.54, -3.12, -3.42, -3.33, -1.63, 0.0, 0.0, 0.0, 0.0, 1.83, 1.72, 1.61, 3.41, 6.7, 7.27, 5.92, 3.32, 2.52, 5.2, 7.1, 8.45, 8.84, 8.18, 7.36, 7.27, 6.24, 5.29, 5.14, 5.0, 5.0, 6.2, 7.36, 7.64, 7.36, 6.98, 6.7, 7.9, 8.22, 8.02, 5.4, 2.28, 3.92, 8.8, 12.8, 13.64, 13.19, 12.27, 11.28, 9.96, 8.12, 5.4, 3.44, 2.25, 0.0, -2.35, -4.87, -6.57, -6.96, -5.86, -3.44, 0.0, 12.16, 12.87, 10.75, 9.17, 4.0, 3.2, 4.71, 7.6, 9.83, 7.6, 6.26, 7.15, 6.36, 4.74, 4.83, 6.42, 6.95, 6.52, 0.0, 0.0, -1.77, -1.83, -1.83, -3.2, -3.2, -4.66, -4.52, -5.45, -5.45, -6.73, -7.59, -6.4, -4.98, -3.04, -0.74, 0.0, 1.78, 1.78, 1.73, 1.6, 1.64, 1.34, 1.33, 1.29, 1.25, 1.14, 1.84, 1.28, 1.33, 2.82, 4.81, 4.07, 2.1, 0.93, 2.31, 6.08, 7.51, 7.63, 8.05, 7.25, 6.7, 5.92, 5.1, 4.56, 5.32, 5.32, 6.24, 7.59, 7.27, 8.31, 8.31, 9.04, 9.05, 9.65, 10.04, 8.53, 6.44, 3.61, 7.96, 12.53, 13.91, 13.64, 13.35, 13.43, 13.25, 11.9, 9.96, 7.64, 5.77, 4.39, 0.81, -2.92, -6.67, -10.09, -10.37, -9.62, -6.94, 11.16, 12.87, 11.16, 9.62, 10.43, 7.59, 6.64, 6.32, 7.81, 8.94, 8.0, 5.37, 5.37, 7.15, 6.0, 6.01, 7.27, 7.68, 5.37, 0.0, 0.0, -1.77, -1.83, -1.83, -3.2, -3.2, -4.52, -4.52, -4.38, -5.15, -6.4, -6.1, -6.8, -6.16, -3.48, -1.5, 0.0, 1.23, 1.21, 1.21, 1.73, 1.73, 1.16, 1.16, 1.16, 1.73, 1.73, 1.71, 0.58, 0.0, 1.64, 2.44, 2.51, 0.79, 1.76, 3.25, 5.0, 5.86, 6.08, 5.6, 5.6, 5.72, 4.25, 4.4, 2.83, 4.4, 6.58, 6.95, 7.56, 6.32, 6.32, 7.41, 8.95, 10.88, 11.03, 10.94, 9.48, 5.57, 5.24, 11.45, 12.8, 12.98, 12.45, 12.7, 13.11, 13.04, 12.86, 11.28, 10.63, 9.8, 6.84, 3.25, -11.18, -12.07, -12.52, -12.96, -12.07, 12.52, 11.91, 9.32, 9.46, 8.85, 8.73, 8.85, 8.01, 6.44, 6.95, 9.33, 6.01, 2.06, 1.73, 5.37, 7.15, 7.6, 8.18, 5.69, 4.29, 0.0, 0.0, -1.72, -1.77, -3.58, -3.1, -3.1, -4.52, -4.52, -4.11, -5.31, -5.31, -6.1, -5.85, -5.41, -4.8, -2.65, -0.8, 0.0, 0.68, 0.68, 1.3, 1.28, 1.94, 1.94, 1.94, 1.77, 2.35, 2.28, 1.19, 0.0, 0.0, 0.0, 0.82, 1.56, 2.59, 3.21, 4.25, 4.25, 4.13, 4.17, 3.29, 3.53, 3.92, 2.7, 2.7, 3.27, 6.3, 7.59, 8.38, 6.95, 7.59, 11.5, 13.15, 11.2, 10.16, 8.55, 7.24, 6.0, 6.53, 11.54, 12.6, 12.45, 11.6, 10.96, 10.63, 10.48, 10.48, 11.12, 9.62, 9.8, 9.08, 3.53, -1.22, -3.87, -5.75, -4.8, 10.28, 9.33, 8.8, 7.87, 7.27, 6.94, 6.4, 6.94, 6.65, 6.67, 5.95, 8.0, 3.4, -0.0, -0.0, -0.0, -0.0, 0.0, 0.0, 3.6, 3.4, 0.0, 0.0, -1.72, -1.77, -3.47, -3.1, -3.1, -4.52, -4.11, -4.11, -5.31, -5.04, -5.04, -5.85, -5.78, -5.56, -4.01, -2.72, -0.85, 0.0, 0.0, 0.72, 1.42, 1.39, 2.08, 2.72, 2.65, 2.57, 2.4, 1.83, 0.63, -0.66, -1.2, 0.0, 1.14, 2.39, 2.49, 3.49, 3.53, 2.71, 2.41, 1.16, 1.18, 1.33, 2.28, 2.46, 4.0, 6.63, 6.98, 6.95, 6.17, 6.17, 7.87, 7.28, 7.28, 6.28, 4.37, 3.11, 4.39, 6.94, 10.0, 10.4, 9.48, 9.48, 9.09, 8.73, 9.09, 9.09, 7.59, 7.56, 6.84, 5.54, -3.68, -2.33, -0.0, 8.18, 10.14, 9.2, 8.82, 7.68, 6.53, 5.06, 3.88, 3.39, 1.84, 3.96, 4.98, 7.9, 8.4, 6.01, -0.0, -0.0, -1.73, -3.4, -8.05, 0.0, 0.0, 0.0, 0.0, -1.72, -1.72, -1.77, -3.1, -3.1, -3.1, -4.52, -4.11, -4.11, -3.88, -5.04, -5.04, -4.81, -4.6, -4.42, -4.26, -2.95, -1.88, -0.83, 0.0, 0.0, 0.73, 1.43, 2.14, 2.72, 2.61, 2.54, 2.47, 1.81, 1.81, 0.0, -1.45, -1.16, 0.0, 0.81, 2.59, 3.36, 2.42, 1.18, 0.79, 0.0, 0.0, 1.22, 1.16, 2.69, 6.01, 6.9, 6.9, 6.01, 5.31, 6.01, 6.01, 6.01, 5.03, 4.14, 2.69, 2.39, 4.72, 6.97, 8.03, 8.15, 7.27, 6.95, 6.64, 6.01, 6.01, 6.3, 6.58, 5.32, 3.36, 0.0, -12.52, -2.28, 10.96, 10.6, 10.18, 9.27, 8.85, 7.64, 6.45, 5.0, 3.25, 1.68, 0.0, -1.14, 2.02, 4.4, 8.49, 7.2, -0.0, -3.2, -3.4, -0.0, -0.0, 0.0, 0.0, 0.0, 0.0, -1.53, -1.58, -1.53, -3.01, -3.1, -3.1, -4.66, -4.11, -4.11, -3.88, -3.88, -4.81, -4.81, -4.6, -3.52, -3.28, -3.05, -1.98, -0.94, 0.0, 0.0, 0.0, 1.46, 2.08, 2.65, 1.92, 1.92, 1.28, 1.32, 0.68, 0.0, -0.73, -1.3, -0.81, 0.0, 0.93, 1.33, 1.28, 0.0, 0.0, 0.0, 0.0, 0.85, 2.58, 4.6, 7.67, 7.28, 6.01, 5.59, 5.59, 5.86, 5.21, 5.21, 5.21, 4.66, 3.87, 3.61, 5.92, 6.97, 7.9, 7.27, 6.3, 5.21, 3.7, 3.27, 4.0, 3.8, 4.2, 2.82, 0.0, -2.0, -3.14, 7.26, 9.52, 10.28, 10.51, 9.6, 8.84, 7.25, 5.8, 4.75, 3.39, 2.28, 0.0, -2.99, -2.69, 7.6, 8.06, 6.01, -0.0, -0.0, 5.37, 8.49, 10.28, 9.39, 8.91, 8.91, 0.0, -1.53, -1.58, -1.58, -3.01, -3.01, -3.1, -4.11, -4.24, -4.24, -3.88, -4.0, -3.69, -3.69, -3.69, -3.42, -3.28, -3.16, -2.05, -0.97, 0.0, -0.8, 0.0, 0.76, 2.21, 1.46, 0.75, 0.0, 0.0, 0.0, -0.7, 0.0, -0.81, -1.78, -1.9, -0.85, -0.89, -1.28, 0.0, 0.0, 0.0, 0.0, 0.0, 1.2, 4.0, 6.64, 6.32, 6.32, 5.86, 5.21, 5.21, 5.46, 4.88, 4.88, 4.88, 4.88, 4.88, 5.98, 6.98, 7.27, 7.27, 5.98, 4.88, 3.7, 2.58, 1.84, 1.75, 1.4, 0.0, 0.0, 0.0, 0.0, 2.39, 6.28, 8.74, 9.66, 8.86, 7.93, 7.11, 6.4, 5.67, 3.96, 3.29, 0.93, -3.49, -8.49, -2.83, 2.06, 6.01, 9.2, 9.54, 8.24, 7.5, 8.94, 10.28, 9.33, 8.91, 8.91, 0.0, -1.53, -1.53, -1.58, -3.01, -3.01, -3.1, -4.11, -4.24, -4.24, -3.88, -4.0, -3.79, -3.79, -3.69, -4.88, -3.32, -3.52, -1.11, 0.0, -0.82, -2.39, -2.57, -1.18, -1.01, 0.0, -0.81, -2.11, -2.04, -1.68, -0.92, 0.0, 0.0, 0.0, -1.42, -3.44, -3.45, -2.47, -1.62, -1.23, 0.0, 0.93, 1.28, 3.87, 5.72, 6.3, 6.3, 5.21, 5.21, 4.2, 5.46, 4.88, 4.88, 4.88, 4.88, 5.98, 5.72, 6.98, 7.27, 5.92, 4.8, 4.6, 3.45, 2.44, 1.67, 0.85, 0.85, 0.0, -0.82, 0.0, 0.0, 2.57, 4.35, 5.83, 5.8, 5.72, 4.19, 4.07, 3.2, 3.28, 3.34, 2.44, 2.49, 1.76, 0.0, -1.54, 0.0, 10.6, 5.52, 7.59, 9.13, 9.26, 8.48, 8.85, 9.83, 9.7, 9.75, 9.75, 0.0, 0.0, -1.53, -1.53, -3.01, -3.01, -3.1, -4.11, -4.24, -4.24, -3.88, -4.0, -3.79, -3.79, -3.79, -4.81, -4.66, -3.58, -3.07, -2.72, -3.56, -4.8, -5.98, -6.71, -5.56, -4.26, -3.24, -2.0, -1.06, 0.0, 1.09, 1.02, 2.04, 2.16, 1.3, 0.0, -1.61, -2.52, -1.69, 0.0, 0.59, 1.73, 2.28, 3.49, 4.69, 5.69, 4.88, 3.87, 3.7, 3.7, 3.7, 3.7, 3.7, 4.66, 4.96, 5.76, 6.98, 6.14, 5.9, 4.8, 3.61, 2.39, 2.39, 1.16, 0.85, 0.85, 0.0, 0.0, 0.0, 0.0, 0.0, 1.68, 2.48, 2.43, 1.59, 0.0, 0.0, -0.82, 0.0, 0.0, 0.81, 0.8, 1.63, 1.76, 0.85, 0.71, 2.44, 4.21, 6.98, 5.86, 6.95, 9.97, 9.3, 8.8, 9.21, 10.28, 10.08, 10.08, 0.0, 0.0, -1.53, -1.53, -3.01, -3.01, -2.72, -4.11, -4.24, -4.37, -3.88, -4.0, -3.79, -3.79, -3.79, -4.6, -4.66, -4.66, -4.99, -5.85, -5.0, -4.86, -5.65, -6.19, -6.31, -3.89, -1.78, 0.0, 0.97, 1.97, 2.79, 2.72, 2.72, 3.59, 2.79, 2.05, 0.0, 0.0, 0.0, 0.0, 0.56, 1.73, 2.39, 3.45, 4.66, 4.8, 3.87, 3.45, 2.28, 2.58, 2.46, 2.46, 3.52, 5.21, 6.3, 5.89, 6.83, 6.88, 5.69, 3.45, 2.39, 2.39, 1.22, 1.22, 0.89, 0.0, 0.0, 0.0, 0.0, 0.0, 0.0, 0.82, 1.61, 0.8, -0.81, -2.4, -5.17, -5.67, -4.04, -3.25, -0.78, 0.0, 0.82, 0.75, 0.85, 0.81, 2.57, 3.15, 5.53, 7.89, 6.32, 8.85, 6.94, 5.46, 7.81, 9.21, 9.39, 9.39, 0.0, 0.0, -1.53, -1.53, -2.72, -2.72, -2.72, -4.11, -4.24, -4.37, -4.0, -4.0, -3.69, -3.79, -3.79, -3.52, -4.47, -4.34, -4.96, -5.81, -4.79, -2.05, -1.15, -1.15, -2.25, -1.05, 0.0, 0.0, 0.83, 1.61, 1.65, 2.47, 2.47, 2.47, 2.4, 2.52, 1.64, 0.77, 0.0, 0.0, 0.64, 1.16, 1.73, 2.28, 3.52, 4.05, 3.61, 2.39, 1.16, 1.26, 1.2, 2.33, 3.8, 4.96, 6.32, 7.56, 7.35, 7.59, 5.69, 3.87, 2.57, 1.68, 0.85, 0.0, 0.0, 0.0, 0.0, 0.0, 0.0, 1.23, 2.52, 4.52, 4.75, 2.47, -2.37, -5.15, -8.51, -8.53, -7.82, -5.8, -4.21, -1.52, 0.0, 0.0, 0.85, 0.89, 2.83, 4.2, 5.36, 8.4, 11.18, 11.4, 11.03, 8.48, 8.24, 8.05, 8.94, 8.94, 0.0, 0.0, 0.0, -1.38, -1.38, -2.72, -2.81, -2.81, -4.24, -4.37, -4.0, -4.0, -3.79, -3.79, -3.79, -3.52, -4.47, -4.34, -5.11, -5.23, -3.89, -1.88, -0.84, 0.0, 0.0, 0.0, 0.0, 0.0, 0.0, 0.77, 0.79, 1.57, 1.57, 1.57, 1.57, 1.65, 1.6, 1.54, 0.72, 0.64, 0.63, 0.6, 1.22, 1.75, 2.89, 3.83, 3.45, 1.16, 0.0, 1.2, 1.32, 2.69, 3.8, 5.31, 6.32, 6.98, 7.51, 7.68, 6.98, 4.34, 2.57, 1.6, 0.85, 0.0, 0.0, 0.0, 0.0, 0.0, 0.0, 3.49, 5.92, 6.08, 4.04, 2.31, 1.22, -1.22, -4.52, -8.93, -10.47, -9.44, -6.94, -3.51, -1.68, 0.0, 0.93, 2.97, 4.2, 4.98, 7.27, 9.3, 11.2, 9.7, 8.55, 6.9, 7.6, 7.37, 7.85, 7.85, 0.0, 0.0, 0.0, 0.0, -1.38, -2.72, -2.72, -2.81, -4.24, -4.37, -4.0, -4.12, -3.79, -3.79, -3.79, -3.52, -4.6, -4.05, -4.3, -4.15, -4.01, -2.95, -1.78, -0.82, -0.8, 0.0, 0.0, 0.0, 0.0, 0.0, 0.77, 0.77, 0.77, 0.77, 1.53, 1.6, 1.6, 1.59, 0.7, 0.64, 0.6, 0.61, 1.28, 2.15, 2.63, 2.6, 1.22, 1.16, 1.26, 2.46, 3.52, 3.8, 3.8, 5.31, 6.01, 6.01, 6.18, 6.32, 6.58, 5.1, 3.45, 1.67, 1.67, 0.85, 0.89, 0.85, 0.85, 1.22, 4.74, 6.53, 5.9, 1.13, 2.47, 4.04, 4.6, 3.47, 2.39, 0.0, -4.52, -8.58, -7.96, -5.75, -1.68, 0.0, 2.83, 3.63, 4.98, 6.11, 7.13, 7.06, 7.51, 6.39, 6.01, 5.37, 6.08, 7.47, 7.47, 7.47, 0.0, 0.0, 0.0, 0.0, -1.38, -1.38, -2.72, -2.81, -2.89, -4.0, -4.0, -4.0, -3.79, -3.79, -3.79, -3.52, -3.52, -4.18, -4.18, -4.15, -4.15, -3.13, -2.95, -1.93, -1.73, -0.82, 0.0, 0.0, 0.0, 0.0, 0.0, 0.0, 0.74, 0.74, 0.8, 0.8, 0.8, 0.78, 0.75, 0.67, 0.58, 1.16, 1.3, 2.15, 2.89, 2.11, 1.22, 1.12, 1.75, 2.42, 3.01, 3.61, 3.35, 3.6, 4.37, 5.1, 6.01, 4.75, 4.6, 5.21, 3.87, 2.69, 2.57, 2.7, 1.68, 1.68, 2.47, 5.21, 7.27, 4.92, 1.7, 0.0, 1.18, 3.24, 4.79, 4.88, 4.37, 2.39, 0.0, -1.33, -5.45, -3.96, 0.0, 3.61, 3.8, 4.26, 4.94, 6.32, 6.73, 6.68, 6.64, 6.01, 5.59, 6.01, 6.7, 7.28, 7.6, 7.6, 0.0, 0.0, 0.0, 0.0, -1.38, -1.38, -1.38, -2.81, -2.89, -3.88, -4.0, -4.0, -3.79, -3.79, -3.79, -3.52, -3.52, -3.52, -3.28, -3.28, -3.07, -3.16, -3.13, -3.13, -1.93, -1.78, -0.85, -0.85, 0.0, 0.0, 0.0, 0.0, 0.0, 0.0, 0.0, 0.0, 0.0, 0.85, 0.82, 0.74, 0.62, 1.22, 1.3, 2.06, 2.82, 2.15, 2.06, 1.12, 1.75, 1.84, 1.84, 1.78, 1.22, 2.33, 3.8, 4.37, 4.14, 3.6, 2.99, 4.6, 3.87, 4.05, 2.57, 1.84, 1.68, 2.57, 5.7, 8.02, 6.42, 4.25, 1.63, 0.0, 0.0, 1.59, 3.24, 4.88, 3.57, 1.42, 0.0, -1.62, -2.81, 2.02, 8.38, 7.59, 4.87, 4.68, 5.53, 6.45, 6.32, 6.01, 6.24, 5.94, 5.49, 6.01, 7.06, 7.81, 7.32, 7.32, 0.0, 0.0, 0.0, 0.0, -1.38, -1.38, -1.38, -2.72, -2.56, -3.88, -4.0, -4.0, -3.79, -3.69, -3.79, -3.52, -3.52, -3.52, -3.28, -3.28, -3.07, -3.07, -2.97, -3.05, -2.05, -1.93, -1.78, -0.87, -0.89, 0.0, 0.0, 0.0, 0.0, 0.0, 0.0, 0.0, 0.0, 0.0, 0.0, 0.87, 0.81, 1.5, 2.1, 2.06, 2.82, 2.15, 2.02, 1.24, 1.18, 1.18, 1.18, 0.59, 0.54, 0.58, 1.75, 2.67, 2.54, 2.82, 3.2, 3.77, 2.58, 2.7, 2.6, 1.75, 2.39, 4.98, 8.02, 6.83, 5.06, 2.49, 1.7, 0.0, 0.0, 0.0, 1.62, 2.37, 1.65, 0.0, -1.7, -3.45, -2.6, 14.3, 14.3, 10.18, 6.18, 5.06, 6.11, 6.01, 6.01, 5.89, 5.94, 6.58, 6.24, 6.64, 7.02, 7.33, 7.33, 7.33, 0.0, 0.0, 0.0, 0.0, 0.0, -1.38, -1.38, -1.25, -2.56, -2.56, -3.88, -4.0, -3.69, -3.69, -3.69, -3.42, -3.52, -3.52, -3.28, -3.28, -3.07, -3.07, -3.07, -2.88, -2.97, -2.0, -1.88, -1.88, -0.92, -0.87, -0.87, -0.83, -0.85, -0.85, 0.0, 0.0, 0.0, 0.0, 0.0, 0.0, 0.87, 0.81, 2.34, 2.7, 2.02, 1.93, 1.28, 0.61, 0.56, 0.0, 0.0, 0.0, 0.0, 0.0, 0.0, 0.0, 1.25, 1.49, 3.2, 2.99, 1.95, 1.6, 0.82, 1.68, 4.56, 7.9, 7.59, 5.9, 3.36, 1.69, 0.8, 0.0, -0.83, -0.83, -0.81, -1.58, -1.59, -0.89, -2.59, -4.75, -0.0, 8.73, 13.59, 11.62, 8.63, 7.64, 6.08, 6.01, 6.01, 5.89, 6.18, 6.53, 6.83, 6.58, 6.58, 6.58, 6.95, 6.95, 0.0, 0.0, 0.0, 0.0, 0.0, -1.25, -1.25, -1.3, -2.56, -2.56, -3.88, -4.0, -3.79, -3.79, -3.79, -3.69, -3.42, -3.42, -3.18, -3.18, -3.28, -3.07, -3.07, -3.07, -2.88, -1.94, -1.94, -2.0, -1.93, -0.92, -0.87, -0.87, -0.83, -0.83, -0.83, -0.87, -0.87, 0.0, 0.0, 0.0, 0.0, 0.84, 1.64, 1.93, 2.35, 2.42, 0.67, -0.72, -1.64, 0.0, -0.59, -0.59, -0.56, 0.0, -0.56, -0.61, 0.0, 1.49, 2.82, 2.99, 0.94, 0.0, 0.0, 2.97, 6.77, 7.68, 7.59, 5.29, 2.59, 0.85, 0.0, -0.83, -1.55, -2.39, -4.04, -4.81, -4.07, -1.62, -0.8, -2.17, 0.0, 7.24, 12.27, 13.75, 9.03, 6.99, 6.07, 6.11, 6.32, 5.89, 5.76, 5.64, 6.05, 6.51, 6.05, 5.78, 5.86, 5.86, 0.0, 0.0, 0.0, 0.0, 0.0, -1.25, -1.25, -1.3, -2.56, -2.56, -2.56, -4.0, -3.69, -3.79, -3.9, -3.79, -3.42, -3.42, -3.42, -3.18, -3.28, -3.07, -3.07, -3.07, -3.07, -3.07, -1.89, -1.94, -2.0, -1.88, -1.78, -1.68, -1.68, -1.6, -0.87, -0.87, -0.92, 0.0, 0.0, 0.0, 0.0, 0.89, 0.89, 0.89, 1.58, 0.89, 0.0, -1.9, -2.63, -2.72, -2.19, -1.6, -1.2, -1.07, -0.56, -1.32, -0.79, 0.0, 1.07, 1.01, 0.0, 0.0, 0.85, 4.98, 6.64, 6.18, 6.48, 6.24, 3.49, 0.0, -0.86, -0.8, -0.81, -2.41, -3.95, -4.95, -4.81, -2.49, 0.0, 0.0, 0.0, 0.0, 5.8, 10.12, 10.55, 6.91, 7.2, 6.06, 5.59, 5.13, 5.04, 4.92, 4.6, 5.76, 5.18, 4.96, 4.5, 4.5, 0.0, 0.0, 0.0, 0.0, 0.0, -1.25, -1.25, -1.3, -2.56, -2.64, -2.64, -3.76, -4.0, -3.69, -3.79, -3.79, -3.79, -3.52, -3.52, -3.28, -3.28, -3.28, -3.28, -3.07, -3.07, -3.07, -2.01, -1.95, -1.89, -1.83, -2.65, -2.44, -2.44, -1.64, -1.68, -1.68, -0.92, -0.97, 0.0, 0.0, 0.0, 0.0, 0.0, 0.0, 0.0, -2.02, -1.83, -1.02, 0.0, 0.0, 0.0, 0.0, -0.67, -1.2, -0.58, -0.59, -0.89, 0.0, 0.0, 0.0, 0.0, 0.0, 2.44, 5.36, 4.74, 3.8, 4.21, 4.4, 2.82, 0.0, 0.0, 0.0, 0.0, 0.0, -2.37, -4.95, -5.06, -3.17, -1.62, 0.0, 0.0, 0.0, 1.17, 2.33, 4.24, 5.2, 6.92, 6.31, 5.21, 4.5, 4.4, 3.53, 3.69, 3.02, 3.69, 3.78, 3.7, 3.7, 0.0, 0.0, 0.0, 0.0, 0.0, 0.0, -1.25, -1.3, -2.56, -2.64, -2.64, -2.64, -3.88, -3.79, -3.79, -3.79, -3.79, -3.62, -3.62, -3.62, -3.37, -3.37, -3.28, -3.28, -3.07, -3.07, -2.98, -2.02, -2.65, -2.72, -3.58, -3.69, -2.65, -2.57, -1.73, -1.78, -1.88, -0.97, -1.03, 0.0, 0.0, 0.0, 0.0, 0.0, -0.85, -2.34, -2.39, 0.0, 0.99, 1.9, 0.79, 0.62, 0.0, 0.0, 0.0, 0.0, 0.0, -1.01, -1.07, -0.89, 0.0, 0.84, 3.45, 3.15, 2.83, 1.84, 1.0, 0.0, 0.0, 0.0, 0.89, 0.85, 1.25, 1.17, 0.0, -2.52, -4.04, -3.23, -2.39, -1.45, 0.0, 0.71, 1.45, 1.77, 2.43, 3.25, 4.38, 4.87, 4.62, 3.61, 2.89, 2.31, 2.15, 2.15, 2.89, 2.97, 2.9, 2.9, 0.0, 0.0, 0.0, 0.0, 0.0, 0.0, -1.25, -1.3, -1.3, -2.64, -2.43, -2.64, -2.64, -2.64, -3.79, -3.79, -3.79, -3.79, -3.52, -3.62, -3.62, -3.37, -3.37, -3.28, -2.98, -2.98, -2.98, -3.0, -2.72, -3.52, -2.72, -2.88, -2.97, -2.0, -1.88, -1.88, -1.0, -1.03, -1.03, 0.0, 0.0, 0.0, 0.0, 0.0, -0.76, -1.64, -1.71, -0.86, 0.0, 0.0, 0.0, 0.0, 0.0, 0.0, 0.0, 0.0, 0.0, 0.0, -0.89, -0.89, 0.0, 1.84, 2.46, 1.95, 1.84, 0.89, 0.0, 0.0, 0.0, 0.0, 0.85, 1.63, 0.83, 0.0, 0.0, 0.0, -0.78, -1.6, -1.41, -0.72, 0.0, 0.71, 1.45, 2.16, 2.51, 3.31, 3.42, 3.47, 2.37, 1.63, 1.69, 0.7, 0.73, 0.73, 0.72, 1.6, 2.31, 2.31, 0.0, 0.0, 0.0, 0.0, 0.0, 0.0, -1.25, -1.3, -1.3, -2.43, -2.43, -2.72, -2.64, -2.64, -2.5, -3.79, -3.79, -3.79, -3.52, -3.62, -3.62, -3.47, -3.37, -3.37, -3.18, -2.98, -2.98, -2.89, -3.8, -3.58, -2.72, -1.89, -1.94, -1.94, -1.0, -1.0, -1.0, -1.07, -1.1, 0.0, 0.0, 0.0, 0.0, 0.0, 0.0, -0.77, -1.65, -1.83, -1.72, -0.75, -0.61, -0.55, -0.59, -0.59, -0.57, -0.55, -0.56, -0.53, 0.0, 0.0, 0.0, 1.58, 1.58, 1.4, 1.84, 0.94, 1.0, 0.0, 0.0, 0.0, 1.76, 1.28, 0.0, -0.79, -0.79, 0.8, 1.61, 0.79, 0.7, 0.0, 0.0, 0.0, 0.71, 1.45, 1.45, 1.96, 2.02, 2.02, 0.74, 0.0, 0.0, 0.0, 0.0, 0.0, 0.0, 1.44, 1.75, 1.75, 0.0, 0.0, 0.0, 0.0, 0.0, 0.0, -1.25, -1.3, -1.23, -2.43, -2.72, -2.72, -2.72, -2.64, -2.64, -3.69, -3.69, -3.69, -3.69, -3.52, -3.62, -3.62, -3.37, -3.37, -3.28, -3.18, -2.98, -2.89, -3.8, -3.69, -2.8, -1.89, -1.89, -0.95, -0.98, -0.98, -1.0, -1.07, -1.1, 0.0, 0.0, 0.0, 0.0, 0.0, 0.0, -0.77, -0.83, -1.77, -2.63, -2.54, -1.98, -1.28, -1.16, -1.11, -1.12, -1.16, -0.56, -0.57, -0.58, -0.59, 0.0, 1.58, 1.58, 1.32, 1.4, 1.4, 1.84, 0.94, 0.89, 0.85, 0.82, 1.28, 0.0, 0.0, 0.0, 0.81, 3.12, 3.18, 1.6, 0.0, 0.0, -0.74, 0.0, 0.0, 0.0, 0.0, 0.0, 0.0, 0.0, 0.0, 0.0, -0.79, 0.0, 0.0, 0.71, 1.49, 1.84, 1.84, 0.0, 0.0, 0.0, 0.0, 0.0, 0.0, -1.3, -1.3, -1.23, -2.43, -2.72, -2.72, -2.72, -2.64, -2.64, -2.72, -3.69, -3.69, -3.69, -3.52, -3.52, -3.62, -3.37, -3.37, -3.28, -3.18, -2.98, -2.89, -2.89, -2.98, -2.98, -1.89, -1.83, -1.83, -0.92, -0.95, -0.98, -1.04, -1.07, -1.15, 0.0, 0.0, 0.0, 0.0, 0.0, -0.77, -1.6, -2.54, -2.63, -3.34, -2.99, -1.89, -1.81, -1.73, -1.67, -1.14, -1.18, -1.2, -0.57, -0.53, -0.59, 0.0, 0.0, 0.94, 1.0, 1.26, 1.95, 0.94, 0.89, 0.0, 0.0, 0.85, 1.21, 0.0, 0.0, 0.0, 0.8, 1.61, 0.79, 0.0, -0.75, -1.42, -1.43, -0.74, -0.71, 0.0, 0.0, 0.0, 0.0, 0.0, 0.0, 0.0, 0.0, 0.0, 0.77, 1.58, 2.69, 2.69, 0.0, 0.0, 0.0, 0.0, 0.0, 0.0, -1.3, -1.19, -1.23, -1.34, -2.72, -2.72, -2.72, -2.72, -2.64, -2.64, -3.69, -3.69, -3.69, -3.79, -3.52, -3.52, -3.62, -3.37, -3.28, -3.18, -3.18, -3.09, -2.89, -2.98, -2.98, -2.98, -1.95, -1.83, -1.83, -1.83, -0.92, -0.95, -1.04, -1.07, -1.15, -1.15, 0.0, 0.0, 0.0, -0.67, -1.54, -2.45, -3.56, -3.34, -3.11, -2.88, -2.65, -1.93, -1.75, -1.69, -1.71, -1.18, -1.14, -0.58, -0.59, 0.0, 0.0, 0.0, 1.0, 1.26, 0.89, 0.0, 0.0, 0.0, 0.0, 0.0, 1.25, 1.13, 0.0, -0.79, -0.82, -0.8, -0.79, -0.78, -0.79, -0.73, -0.69, -0.75, 0.0, 0.0, 0.0, 0.0, 0.0, 0.0, 0.0, 0.0, 0.0, 0.82, 0.81, 1.44, 2.31, 2.54, 0.0, 0.0, 0.0, 0.0, 0.0, 0.0, -1.3, -1.19, -1.23, -1.34, -2.72, -2.5, -2.72, -2.72, -2.72, -2.64, -2.64, -3.69, -3.69, -3.79, -3.52, -3.52, -3.52, -3.37, -3.28, -3.18, -3.09, -3.09, -3.09, -3.09, -2.98, -2.89, -1.95, -1.95, -1.95, -1.83, -1.77, -2.01, -2.01, -2.07, -2.21, -1.23, 0.0, 0.0, 0.0, -0.67, -2.14, -3.96, -4.51, -4.36, -4.21, -3.91, -2.76, -2.53, -2.3, -1.78, -1.71, -1.84, -1.12, -1.14, -0.59, -0.59, 0.0, 0.0, 0.0, 0.0, 0.0, 0.0, 0.0, 0.0, 0.0, 0.0, 0.0, 0.81, 0.8, 0.0, -1.58, -2.44, -2.17, -1.55, -0.77, 0.0, 0.0, 0.0, 0.0, 0.0, 0.0, 0.0, 0.0, 0.0, 0.0, 0.0, 0.79, 0.82, 0.85, 1.52, 2.23, 2.31, 0.0, 0.0, 0.0, 0.0, 0.0, 0.0, -1.3, -1.3, -1.34, -1.34, -2.5, -2.5, -2.72, -2.72, -2.72, -2.64, -2.64, -2.64, -3.69, -3.69, -3.79, -3.52, -3.52, -3.52, -3.28, -3.18, -3.09, -3.09, -3.0, -3.0, -3.09, -3.09, -2.89, -2.89, -2.81, -1.95, -1.89, -1.89, -2.01, -2.01, -2.21, -2.38, -2.43, -2.37, -1.07, -1.5, -3.36, -5.63, -6.4, -6.2, -5.43, -4.33, -3.61, -3.46, -2.46, -2.33, -1.71, -1.88, -1.65, -1.23, -1.14, -0.59, 0.0, 0.0, 0.0, 0.0, 0.0, 0.0, 0.0, 0.0, 0.0, 0.0, 0.0, 0.0, 2.31, 2.5, 0.0, -2.43, -3.2, -2.23, -1.42, -0.71, -0.73, -0.72, -0.74, -0.71, -0.72, -0.77, -0.83, 0.0, 0.0, 0.0, 0.0, 0.0, 0.85, 0.81, 1.52, 2.23, 0.0, 0.0, 0.0, 0.0, 0.0, 0.0, -1.25, -1.3, -1.3, -1.23, -2.43, -2.43, -2.72, -2.72, -2.64, -2.64, -2.64, -2.64, -3.58, -3.69, -3.69, -3.42, -3.42, -3.52, -3.52, -3.28, -3.09, -3.0, -3.0, -3.0, -3.0, -3.09, -3.09, -2.89, -2.81, -2.81, -2.81, -2.72, -2.81, -3.09, -3.09, -3.42, -3.47, -3.6, -4.81, -4.65, -4.81, -4.95, -5.99, -6.4, -5.73, -5.18, -4.13, -3.53, -3.01, -2.33, -2.37, -2.26, -2.12, -1.76, -1.14, -1.16, 0.0, 0.0, 0.0, 0.0, 0.0, 0.0, 0.0, 0.89, 0.85, 0.0, 0.0, 0.0, 1.13, 2.31, 1.6, 0.0, -2.39, -2.44, -2.14, -2.18, -2.18, -2.18, -2.1, -2.22, -2.14, -2.28, -1.64, -1.64, -0.76, -0.79, 0.0, 0.0, 0.0, 0.0, 0.89, 0.89, 0.0, 0.0, 0.0, 0.0, 0.0, 0.0, -1.25, -1.3, -1.19, -2.35, -2.43, -2.43, -2.64, -2.64, -2.64, -2.64, -2.64, -2.64, -2.64, -3.58, -3.69, -3.69, -3.42, -3.42, -3.42, -3.42, -3.32, -3.0, -3.0, -2.9, -2.9, -2.9, -3.0, -3.0, -2.81, -2.72, -2.72, -2.63, -2.9, -3.0, -3.0, -3.22, -4.08, -3.96, -5.06, -5.67, -3.8, -2.31, -2.81, -2.72, -3.85, -3.47, -3.65, -3.21, -2.83, -2.5, -2.89, -2.73, -2.4, -2.26, -1.65, -1.67, -1.16, 0.0, 0.0, 0.0, 1.32, 0.0, 0.89, 0.89, 0.85, 0.0, -1.28, -0.82, -1.16, 0.0, 1.56, 2.53, 0.92, 0.0, -0.8, -0.77, -0.75, -0.78, -1.65, -1.71, -1.58, -1.58, -1.58, -1.58, -1.58, -1.52, -0.82, -0.85, 0.0, 0.0, 0.0, 0.0, 0.0, 0.0, 0.0, 0.0, 0.0, 0.0, -1.25, -1.25, -1.15, -2.35, -2.35, -2.64, -2.64, -2.64, -2.64, -2.64, -2.64, -2.64, -2.64, -3.58, -3.69, -3.69, -3.69, -3.42, -3.42, -3.42, -3.32, -3.22, -2.9, -2.9, -2.81, -2.81, -2.81, -3.81, -3.93, -3.68, -3.68, -3.68, -3.68, -3.68, -4.08, -4.08, -3.94, -3.55, -4.17, -4.36, -3.69, -2.02, -1.03, -1.04, -1.09, -2.19, -1.84, -2.7, -2.35, -2.35, -2.89, -2.89, -2.73, -2.4, -2.29, -1.8, -1.67, 0.0, 0.0, 1.49, 1.32, 1.32, 1.73, 1.65, 0.0, -0.85, -1.68, -1.69, -2.51, -1.6, 0.0, 2.4, 4.01, 3.49, 1.94, 0.92, 0.89, 0.0, 0.0, 0.0, 0.0, -0.74, -0.74, -0.8, -1.58, -1.58, -1.52, -0.82, 0.0, 0.0, 0.0, 0.0, 0.0, 0.0, 0.0, 0.0, 0.0, 0.0, -1.25, -1.25, -1.3, -2.35, -2.56, -2.64, -2.64, -2.64, -2.64, -2.64, -2.64, -2.64, -2.64, -3.58, -3.69, -3.69, -3.69, -3.42, -3.42, -3.42, -3.32, -3.22, -3.12, -2.81, -3.68, -3.68, -3.68, -3.68, -3.68, -3.68, -3.56, -3.68, -3.68, -3.68, -3.94, -3.94, -3.81, -3.42, -4.01, -3.32, -3.68, -2.81, -2.81, -1.84, -1.7, -0.85, -0.81, -0.81, -1.67, -2.23, -2.54, -3.09, -2.92, -2.92, -2.26, -2.29, -1.8, -1.14, 0.0, 1.58, 1.32, 1.96, 1.84, 0.94, 0.0, -0.94, -1.84, -2.49, -1.63, -1.58, 0.0, 1.63, 3.24, 4.75, 5.38, 4.77, 3.05, 0.96, 0.0, 0.0, 0.0, 0.0, -0.77, -0.74, -1.16, -1.56, -1.69, -0.82, -0.85, 0.0, 0.0, 0.0, 0.0, 0.0, 0.0, 0.0, 0.0, 0.0, -1.21, -1.25, -1.3, -2.56, -2.56, -2.56, -2.64, -2.64, -2.64, -2.64, -2.64, -2.64, -2.64, -2.64, -3.58, -3.69, -3.69, -3.69, -3.42, -3.42, -3.32, -3.22, -4.08, -3.81, -3.68, -3.56, -3.56, -3.56, -3.56, -3.56, -3.56, -3.56, -3.68, -3.81, -3.81, -3.81, -3.81, -3.42, -3.29, -3.55, -3.81, -3.81, -2.92, -2.71, -2.51, -1.5, -1.47, -0.71, -0.73, -0.73, -1.44, -2.12, -2.4, -2.92, -2.75, -2.29, -1.8, -1.14, 0.0, 0.0, 0.0, 0.0, 0.0, 0.0, -0.89, -1.84, -1.75, -1.76, -1.69, -0.82, 0.0, 0.0, 1.58, 3.95, 4.85, 5.27, 4.03, 1.82, 0.0, 0.0, -0.69, -0.71, -1.54, -1.05, -1.18, -1.62, -1.62, -1.68, -0.93, -0.99, -0.99, -0.99, 0.0, 0.0, 0.0, 0.0, 0.0, -1.21, -1.21, -1.25, -2.48, -2.56, -2.56, -2.56, -2.64, -2.64, -2.64, -2.64, -2.64, -2.64, -2.64, -2.64, -3.58, -3.69, -3.69, -3.69, -3.69, -3.42, -3.32, -4.21, -4.08, -4.08, -3.68, -3.56, -3.56, -3.44, -3.44, -3.44, -3.44, -3.68, -3.81, -3.81, -3.81, -3.81, -3.81, -3.55, -3.29, -3.55, -3.68, -3.68, -3.68, -2.82, -2.6, -2.39, -1.47, -1.4, -0.67, -0.73, -0.73, -1.36, -2.12, -2.6, -2.44, -2.14, -1.67, -1.16, 0.0, 0.0, 0.0, -1.32, -1.4, -1.95, -1.84, -1.84, -1.75, -0.85, -0.85, 0.0, 0.0, 0.0, 0.81, 2.39, 3.28, 4.01, 3.76, 3.6, 0.87, 0.0, -1.48, -2.18, -2.37, -2.41, -1.69, -1.62, -1.68, -1.68, -1.93, -1.09, -1.09, -1.09, 0.0, 0.0, 0.0, 0.0, 0.0, -1.21, -1.25, -1.25, -2.48, -2.48, -2.56, -2.56, -2.56, -2.64, -2.64, -2.64, -2.64, -2.64, -2.64, -2.56, -3.76, -3.58, -3.69, -3.69, -3.69, -3.42, -4.34, -4.21, -4.08, -4.08, -3.94, -3.68, -3.56, -4.21, -4.21, -4.06, -4.33, -3.68, -3.68, -3.68, -3.68, -3.68, -3.68, -3.55, -3.29, -3.55, -3.68, -3.68, -3.82, -2.71, -2.6, -2.49, -2.28, -1.47, -1.32, -1.25, -1.25, -1.25, -1.36, -2.0, -2.6, -2.49, -1.7, -1.19, 0.0, 0.0, 0.0, -1.25, -1.32, -1.0, -0.99, -0.94, -0.89, -0.85, -0.82, -0.85, 0.0, 0.0, 0.86, 1.65, 1.66, 2.37, 4.23, 4.36, 2.78, 0.0, -2.2, -3.6, -3.53, -3.61, -3.39, -2.39, -1.68, -1.84, -1.04, -1.16, -1.16, -1.16, 0.0, 0.0, 0.0, 0.0, 0.0, -1.21, -1.25, -1.25, -1.25, -2.56, -2.56, -2.56, -2.64, -2.64, -2.64, -2.64, -2.64, -2.64, -2.64, -2.64, -3.88, -3.88, -3.69, -3.69, -3.69, -4.34, -4.34, -4.21, -4.08, -3.94, -3.94, -3.94, -4.65, -4.49, -4.49, -3.55, -3.55, -3.55, -3.55, -3.96, -3.96, -3.96, -3.96, -3.55, -3.42, -3.68, -3.81, -3.96, -3.68, -2.6, -2.71, -2.59, -2.59, -2.47, -1.4, -1.32, -1.25, -1.18, -1.18, -2.0, -2.0, -2.49, -1.7, -1.35, -1.35, -2.12, -0.95, -0.89, -0.94, -0.94, -1.75, -1.84, -0.93, -0.85, -0.85, -0.82, 0.0, 0.0, 0.0, 0.83, 0.83, 1.57, 3.2, 4.23, 3.44, 0.85, -3.76, -5.3, -5.62, -5.09, -4.4, -3.36, -2.57, -1.75, -1.75, -1.0, -1.0, -1.0, 0.0, 0.0, 0.0, 0.0, 0.0, -1.21, -1.25, -1.25, -1.25, -1.3, -1.3, -2.56, -2.64, -2.64, -2.64, -2.64, -2.64, -2.64, -2.64, -3.88, -3.88, -3.88, -3.69, -3.69, -4.66, -4.66, -4.34, -4.21, -4.08, -4.08, -3.94, -3.94, -3.81, -3.68, -3.68, -3.55, -3.55, -3.55, -3.82, -3.82, -3.82, -3.82, -3.82, -3.82, -3.55, -3.96, -4.1, -3.96, -3.68, -2.82, -2.71, -2.59, -2.59, -2.35, -2.06, -1.95, -1.95, -1.84, -1.73, -1.73, -1.88, -2.32, -1.7, -2.11, -1.94, -1.98, -1.98, -0.95, -0.89, -1.95, -2.69, -2.57, -3.49, -1.93, -1.68, -0.85, -0.89, 0.0, 0.0, 0.0, 0.0, 0.83, 1.61, 2.43, 2.65, 0.0, -2.21, -5.13, -6.28, -6.58, -6.14, -5.13, -3.8, -3.6, -1.84, -1.84, -1.84, -1.84, 0.0, 0.0, 0.0, 0.0, 0.0, -1.17, -1.21, -1.25, -1.25, -1.3, -1.3, -2.64, -2.64, -2.64, -2.64, -2.64, -2.64, -2.64, -2.64, -3.88, -3.88, -3.88, -3.88, -3.58, -4.66, -4.66, -4.34, -4.21, -4.08, -4.08, -3.94, -3.94, -3.81, -3.81, -3.68, -3.55, -3.55, -3.42, -3.68, -3.68, -3.82, -3.82, -3.82, -3.68, -3.82, -3.96, -4.1, -3.96, -3.82, -2.94, -2.71, -2.59, -2.59, -2.35, -2.06, -1.95, -1.95, -1.84, -1.84, -1.73, -2.29, -2.32, -2.18, -2.4, -2.66, -2.66, -2.12, -1.98, -1.84, -2.82, -2.67, -3.45, -4.56, -4.78, -2.83, -1.68, -0.89, 0.0, 0.0, 0.0, 0.0, 0.0, 0.0, 0.0, 0.0, 0.0, -0.82, -2.83, -4.95, -6.01, -6.68, -6.32, -5.53, -4.42, -3.72, -2.82, -2.82, -2.82, 0.0, 0.0, 0.0, 0.0, -1.17, -1.17, -1.21, -1.25, -1.25, -1.3, -2.56, -2.64, -2.64, -2.64, -2.64, -2.64, -2.64, -2.64, -3.88, -3.88, -3.88, -3.88, -3.88, -4.66, -4.66, -4.66, -4.52, -4.21, -4.08, -3.94, -3.94, -3.81, -3.81, -3.81, -3.68, -3.55, -3.55, -3.68, -3.68, -3.68, -3.68, -3.68, -3.68, -3.68, -3.68, -3.68, -3.82, -3.82, -4.12, -2.94, -2.82, -3.51, -3.36, -3.21, -2.83, -2.69, -2.54, -2.54, -2.4, -2.26, -2.29, -2.8, -2.82, -3.08, -3.38, -3.38, -3.72, -2.8, -1.84, -1.96, -2.67, -3.6, -4.5, -5.36, -4.78, -3.49, -1.84, -0.89, -0.85, -0.82, -0.86, 0.0, 0.0, -0.89, -1.74, -1.69, -0.8, -0.85, -1.63, -3.9, -5.37, -6.06, -5.77, -5.49, -5.37, -4.71, -4.71, -4.71, 0.0, 0.0, 0.0, 0.0, -1.17, -1.17, -1.21, -1.21, -1.25, -2.48, -2.56, -2.56, -2.64, -2.64, -2.64, -2.64, -2.64, -3.88, -3.88, -4.0, -3.88, -3.88, -3.88, -5.04, -4.66, -4.52, -4.52, -4.52, -4.38, -3.94, -3.94, -3.81, -3.81, -3.68, -3.68, -3.55, -3.55, -3.68, -3.68, -3.53, -3.68, -3.68, -3.68, -3.68, -3.53, -3.53, -3.68, -3.97, -3.97, -2.94, -3.67, -3.51, -3.36, -3.36, -2.97, -2.83, -2.69, -2.5, -2.37, -2.4, -2.96, -2.77, -2.8, -3.47, -3.76, -3.76, -3.47, -2.36, -1.01, -1.01, -1.84, -2.69, -3.8, -3.6, -4.68, -4.74, -3.81, -2.59, -2.49, -2.6, -1.76, -1.7, -0.81, -0.87, -1.74, -2.45, -1.44, -0.75, -0.77, -1.55, -3.11, -5.49, -6.32, -6.32, -6.98, -6.32, -6.32, -6.32, 0.0, 0.0, 0.0, 0.0, -1.13, -1.17, -1.21, -1.25, -1.25, -2.48, -2.48, -2.56, -2.64, -2.64, -2.64, -2.64, -3.88, -3.88, -3.88, -4.0, -4.0, -3.88, -3.88, -5.04, -4.52, -4.52, -4.52, -4.38, -4.38, -4.24, -4.24, -4.1, -4.1, -3.96, -3.96, -3.82, -3.82, -3.68, -3.68, -3.53, -3.53, -3.68, -3.68, -3.53, -3.53, -3.39, -3.67, -3.67, -3.67, -3.67, -3.67, -3.82, -4.07, -4.07, -3.78, -3.61, -3.21, -3.21, -3.05, -2.92, -2.75, -3.42, -3.45, -3.47, -3.72, -4.42, -3.72, -2.82, -1.96, -1.73, -1.75, -1.84, -1.94, -1.94, -1.94, -3.45, -5.21, -4.4, -4.25, -3.51, -2.71, -2.6, -0.81, 0.0, -0.89, -1.94, -2.41, -2.59, -2.23, -1.55, -1.03, -4.83, -7.47, -8.3, -7.51, -6.01, -6.01, -6.01, 0.0, 0.0, 0.0, -1.13, -1.13, -1.13, -1.17, -1.21, -2.4, -2.4, -2.48, -2.56, -2.56, -2.64, -2.64, -3.88, -3.88, -3.88, -3.88, -4.0, -4.0, -4.0, -4.0, -5.04, -4.89, -4.52, -4.52, -4.38, -4.38, -4.24, -4.1, -4.1, -3.96, -3.96, -3.96, -3.82, -3.82, -4.47, -4.3, -4.3, -3.82, -3.82, -3.82, -3.53, -3.39, -3.67, -3.67, -3.67, -3.51, -3.51, -3.82, -3.82, -4.25, -4.71, -4.4, -3.61, -3.37, -3.75, -3.56, -3.6, -3.6, -3.42, -3.42, -3.45, -3.72, -4.12, -4.42, -3.72, -2.54, -2.67, -1.84, -1.75, -0.94, -0.99, -0.89, -1.75, -2.7, -4.4, -4.25, -4.25, -3.51, -2.6, -1.71, -0.79, 0.0, -1.01, -2.17, -3.6, -3.2, -1.7, 0.0, -2.69, -7.81, -8.4, -6.64, -4.2, -4.2, -4.2, 0.0, 0.0, 0.0, -1.13, -1.17, -1.17, -1.17, -2.32, -2.4, -2.4, -2.48, -2.56, -2.56, -2.64, -3.88, -3.88, -3.88, -3.88, -3.88, -3.88, -4.0, -4.0, -4.0, -5.04, -4.89, -4.89, -4.52, -4.38, -4.24, -4.24, -4.1, -3.96, -3.96, -3.96, -3.82, -3.82, -4.64, -4.47, -4.47, -4.3, -4.62, -3.82, -3.82, -3.82, -3.67, -3.67, -3.67, -3.51, -3.51, -3.82, -3.82, -4.6, -4.92, -4.71, -4.71, -4.4, -4.2, -3.75, -3.75, -3.56, -3.6, -3.4, -3.42, -3.42, -4.1, -4.39, -4.39, -4.71, -3.72, -3.55, -2.99, -2.67, -2.83, -1.95, -1.84, -1.75, -2.7, -4.4, -4.25, -4.25, -3.51, -2.49, -2.51, -1.61, 0.0, 0.0, -1.93, -2.8, -5.01, -5.37, -2.83, -2.28, -5.21, -6.64, -4.2, 0.0, 0.0, 0.0, 0.0, 0.0, 0.0, -1.13, -1.17, -1.17, -2.32, -2.4, -2.4, -2.4, -2.48, -2.48, -2.56, -3.88, -3.88, -3.88, -3.88, -3.88, -3.88, -4.0, -4.0, -4.0, -5.19, -5.04, -4.89, -4.89, -4.74, -4.38, -4.24, -4.1, -4.1, -3.96, -3.96, -3.82, -3.82, -4.64, -4.47, -4.47, -4.47, -4.62, -4.62, -3.82, -3.82, -3.67, -3.67, -3.67, -3.67, -3.51, -3.82, -3.82, -4.6, -5.06, -4.92, -4.71, -4.71, -5.28, -4.73, -4.73, -4.5, -4.28, -4.05, -3.83, -3.64, -3.42, -4.1, -4.1, -4.39, -4.39, -4.71, -4.42, -4.42, -3.77, -2.82, -2.67, -3.6, -3.63, -3.49, -4.2, -4.07, -3.36, -3.51, -2.49, -2.51, -2.45, -1.62, -0.98, -1.25, -3.6, -6.26, -8.49, -6.64, -4.4, -4.2, -5.21, -4.2, -4.2, -4.2, -4.2, 0.0, 0.0, -1.13, -1.13, -1.29, -1.29, -2.32, -2.4, -2.4, -2.4, -2.48, -2.48, -3.76, -3.76, -3.88, -3.76, -3.76, -3.88, -3.88, -4.24, -4.37, -5.64, -5.64, -5.19, -4.89, -4.74, -4.74, -4.74, -4.58, -4.1, -4.1, -3.96, -3.96, -3.82, -4.64, -4.64, -4.64, -4.47, -4.47, -4.62, -4.62, -4.62, -3.67, -3.67, -3.67, -3.67, -3.51, -3.51, -3.82, -3.82, -4.6, -5.06, -4.71, -4.71, -4.71, -5.04, -4.73, -4.73, -4.73, -4.5, -4.28, -4.05, -4.08, -3.84, -4.1, -4.1, -4.1, -4.67, -5.05, -4.47, -3.68, -3.4, -1.96, -1.73, -2.67, -2.69, -3.63, -3.49, -4.2, -3.36, -3.51, -3.39, -3.29, -3.23, -2.41, -2.01, -1.25, -3.39, -8.06, -8.49, -8.91, -6.95, -4.4, -4.4, -2.97, -2.97, -2.97, -2.97, -1.25, -1.25, -1.25, -1.25, -1.25, -2.54, -2.54, -2.54, -2.63, -2.63, -2.72, -3.65, -3.76, -3.76, -3.76, -4.11, -4.11, -4.11, -4.24, -5.48, -5.48, -5.64, -5.64, -5.48, -4.89, -4.74, -4.74, -4.58, -4.58, -4.43, -4.1, -3.96, -3.82, -3.82, -4.64, -4.64, -4.64, -4.47, -4.81, -4.81, -4.62, -4.62, -4.62, -3.67, -3.67, -3.67, -3.51, -3.82, -3.82, -4.6, -4.4, -5.06, -5.28, -4.71, -4.71, -5.04, -5.04, -4.5, -4.73, -4.5, -4.5, -4.28, -4.32, -4.08, -4.36, -4.36, -4.36, -4.36, -5.03, -4.75, -3.84, -3.27, -0.83, 0.0, -0.89, -1.75, -2.44, -3.49, -3.49, -4.07, -4.25, -4.13, -4.01, -4.21, -3.14, -2.01, -2.18, -2.52, -7.27, -9.83, -9.11, -8.4, -6.95, -5.63, -5.63, -4.0, -4.0, -4.0, -1.25, -1.25, -1.29, -1.29, -1.29, -2.54, -2.54, -2.54, -2.54, -2.63, -3.85, -3.98, -4.11, -4.11, -4.11, -4.11, -4.11, -4.11, -5.31, -5.48, -5.48, -5.48, -5.48, -5.48, -5.31, -4.74, -4.74, -4.58, -4.58, -4.43, -4.43, -3.96, -3.82, -4.64, -4.64, -4.47, -4.47, -4.47, -4.81, -4.62, -4.62, -4.62, -4.62, -4.44, -4.44, -4.44, -4.8, -4.6, -4.6, -4.6, -5.06, -5.64, -5.64, -5.64, -5.38, -5.04, -5.04, -4.8, -4.5, -4.5, -4.5, -4.56, -4.56, -4.32, -4.36, -4.36, -4.36, -5.03, -5.03, -4.75, -4.1, -3.0, -1.67, 0.0, 0.0, -1.84, -2.69, -3.49, -4.2, -4.07, -4.92, -4.13, -4.01, -4.06, -3.23, -3.0, -2.11, -2.16, -5.0, -9.54, -9.39, -9.64, -8.05, -6.32, -6.32, -5.36, -5.36, -5.36, -1.25, -1.25, -1.29, -1.29, -1.29, -2.54, -2.54, -2.54, -2.54, -2.63, -3.85, -3.98, -4.11, -4.11, -4.11, -4.11, -4.11, -4.11, -5.31, -5.48, -5.48, -5.48, -5.48, -5.48, -5.31, -4.74, -4.74, -4.58, -4.58, -4.43, -4.43, -3.96, -3.82, -4.64, -4.64, -4.47, -4.47, -4.47, -4.81, -4.62, -4.62, -4.62, -4.62, -4.44, -4.44, -4.44, -4.8, -4.6, -4.6, -4.6, -5.06, -5.64, -5.64, -5.64, -5.38, -5.04, -5.04, -4.8, -4.5, -4.5, -4.5, -4.56, -4.56, -4.32, -4.36, -4.36, -4.36, -5.03, -5.03, -4.75, -4.1, -3.0, -1.67, 0.0, 0.0, -1.84, -2.57, -3.49, -4.2, -4.07, -4.92, -4.8, -5.0, -4.17, -3.19, -2.92, -2.2, -2.24, -3.68, -8.94, -10.28, -9.39, -9.21, -8.72, -7.51, -7.51, -7.51, -7.51]}]